Wetterdaten: Samstag, 25.03.2017
Datum Zeit Temp. Aussen Temp. o. S. +5cm Feuchte Auss BlattFeu 1 Luftdruck Regen Sonnenschein Regendauer Solar Windben Empfang
25.03.2017 00:00 7,7 C 7,2 C 3,9 C 75 % 0 lf 1030,0 hPa 0,0 l/m 0 min 0 min 1 W/m 14,6 km/h (3 Bft) 95,74 %
25.03.2017 00:02 7,7 C 7,2 C 3,9 C 75 % 0 lf 1030,0 hPa 0,0 l/m 0 min 0 min 0 W/m 14,6 km/h (3 Bft) 100,00 %
25.03.2017 00:04 7,7 C 7,2 C 4,4 C 75 % 0 lf 1030,1 hPa 0,0 l/m 0 min 0 min 0 W/m 16,7 km/h (3 Bft) 95,74 %
25.03.2017 00:06 7,6 C 7,2 C 4,4 C 75 % 0 lf 1030,1 hPa 0,0 l/m 0 min 0 min 0 W/m 14,6 km/h (3 Bft) 100,00 %
25.03.2017 00:10 7,6 C 7,2 C 4,4 C 76 % 0 lf 1030,0 hPa 0,0 l/m 0 min 0 min 0 W/m 14,6 km/h (3 Bft) 98,96 %
25.03.2017 00:12 7,6 C 7,2 C 4,4 C 75 % 0 lf 1030,0 hPa 0,0 l/m 0 min 0 min 0 W/m 12,6 km/h (3 Bft) 95,65 %
25.03.2017 00:14 7,5 C 7,2 C 4,4 C 76 % 0 lf 1030,0 hPa 0,0 l/m 0 min 0 min 0 W/m 14,6 km/h (3 Bft) 100,00 %
25.03.2017 00:16 7,5 C 7,8 C 4,4 C 76 % 0 lf 1030,0 hPa 0,0 l/m 0 min 0 min 0 W/m 14,6 km/h (3 Bft) 97,87 %
25.03.2017 00:18 7,5 C 7,2 C 4,4 C 76 % 0 lf 1030,0 hPa 0,0 l/m 0 min 0 min 0 W/m 10,5 km/h (2 Bft) 100,00 %
25.03.2017 00:20 7,4 C 7,2 C 4,4 C 76 % 0 lf 1030,0 hPa 0,0 l/m 0 min 0 min 0 W/m 16,7 km/h (3 Bft) 100,00 %
25.03.2017 00:22 7,4 C 7,2 C 4,4 C 76 % 0 lf 1030,0 hPa 0,0 l/m 0 min 0 min 1 W/m 16,7 km/h (3 Bft) 100,00 %
25.03.2017 00:24 7,4 C 7,2 C 4,4 C 76 % 0 lf 1030,0 hPa 0,0 l/m 0 min 0 min 0 W/m 16,7 km/h (3 Bft) 100,00 %
25.03.2017 00:26 7,4 C 7,2 C 4,4 C 76 % 0 lf 1030,0 hPa 0,0 l/m 0 min 0 min 0 W/m 14,6 km/h (3 Bft) 100,00 %
25.03.2017 00:28 7,4 C 7,2 C 4,4 C 76 % 0 lf 1030,0 hPa 0,0 l/m 0 min 0 min 0 W/m 10,5 km/h (2 Bft) 97,87 %
25.03.2017 00:30 7,4 C 7,2 C 4,4 C 76 % 0 lf 1030,0 hPa 0,0 l/m 0 min 0 min 0 W/m 14,6 km/h (3 Bft) 100,00 %
25.03.2017 00:32 7,4 C 7,2 C 4,4 C 76 % 0 lf 1030,0 hPa 0,0 l/m 0 min 0 min 2 W/m 12,6 km/h (3 Bft) 97,87 %
25.03.2017 00:34 7,4 C 7,2 C 3,9 C 76 % 0 lf 1029,9 hPa 0,0 l/m 0 min 0 min 1 W/m 10,5 km/h (2 Bft) 97,87 %
25.03.2017 00:36 7,3 C 7,2 C 4,4 C 76 % 0 lf 1030,0 hPa 0,0 l/m 0 min 0 min 0 W/m 12,6 km/h (3 Bft) 100,00 %
25.03.2017 00:38 7,3 C 7,2 C 3,9 C 77 % 0 lf 1030,0 hPa 0,0 l/m 0 min 0 min 0 W/m 16,7 km/h (3 Bft) 95,74 %
25.03.2017 00:40 7,3 C 7,2 C 3,9 C 77 % 0 lf 1030,0 hPa 0,0 l/m 0 min 0 min 0 W/m 14,6 km/h (3 Bft) 100,00 %
25.03.2017 00:42 7,3 C 6,7 C 3,9 C 77 % 0 lf 1030,0 hPa 0,0 l/m 0 min 0 min 0 W/m 10,5 km/h (2 Bft) 95,74 %
25.03.2017 00:44 7,3 C 6,7 C 3,9 C 77 % 0 lf 1030,0 hPa 0,0 l/m 0 min 0 min 2 W/m 10,5 km/h (2 Bft) 100,00 %
25.03.2017 00:46 7,2 C 6,7 C 3,3 C 77 % 0 lf 1030,0 hPa 0,0 l/m 0 min 0 min 1 W/m 14,6 km/h (3 Bft) 100,00 %
25.03.2017 00:48 7,2 C 6,7 C 3,3 C 77 % 0 lf 1030,0 hPa 0,0 l/m 0 min 0 min 2 W/m 14,6 km/h (3 Bft) 97,87 %
25.03.2017 00:50 7,2 C 6,7 C 3,9 C 77 % 0 lf 1030,0 hPa 0,0 l/m 0 min 0 min 5 W/m 14,6 km/h (3 Bft) 95,74 %
25.03.2017 00:52 7,2 C 7,2 C 3,9 C 77 % 0 lf 1030,0 hPa 0,0 l/m 0 min 0 min 5 W/m 12,6 km/h (3 Bft) 97,83 %
25.03.2017 00:54 7,2 C 6,7 C 3,9 C 77 % 0 lf 1030,1 hPa 0,0 l/m 0 min 0 min 0 W/m 10,5 km/h (2 Bft) 97,87 %
25.03.2017 00:56 7,1 C 6,7 C 3,9 C 77 % 0 lf 1030,1 hPa 0,0 l/m 0 min 0 min 4 W/m 12,6 km/h (3 Bft) 95,74 %
25.03.2017 00:58 7,1 C 7,2 C 3,9 C 77 % 0 lf 1030,1 hPa 0,0 l/m 0 min 0 min 2 W/m 14,6 km/h (3 Bft) 93,62 %
25.03.2017 01:00 7,1 C 7,2 C 4,4 C 77 % 0 lf 1030,0 hPa 0,0 l/m 0 min 0 min 0 W/m 12,6 km/h (3 Bft) 93,62 %
25.03.2017 01:02 7,1 C 7,2 C 4,4 C 77 % 0 lf 1030,0 hPa 0,0 l/m 0 min 0 min 0 W/m 12,6 km/h (3 Bft) 95,74 %
25.03.2017 01:04 7,1 C 7,2 C 4,4 C 78 % 0 lf 1030,0 hPa 0,0 l/m 0 min 0 min 0 W/m 12,6 km/h (3 Bft) 93,48 %
25.03.2017 01:06 7,0 C 6,7 C 4,4 C 78 % 0 lf 1030,1 hPa 0,0 l/m 0 min 0 min 0 W/m 12,6 km/h (3 Bft) 93,62 %
25.03.2017 01:08 7,0 C 6,7 C 3,9 C 78 % 0 lf 1030,1 hPa 0,0 l/m 0 min 0 min 0 W/m 10,5 km/h (2 Bft) 91,49 %
25.03.2017 01:10 7,0 C 6,7 C 3,9 C 78 % 0 lf 1030,0 hPa 0,0 l/m 0 min 0 min 0 W/m 8,4 km/h (2 Bft) 91,49 %
25.03.2017 01:12 7,0 C 6,7 C 3,9 C 78 % 0 lf 1030,0 hPa 0,0 l/m 0 min 0 min 0 W/m 16,7 km/h (3 Bft) 93,62 %
25.03.2017 01:14 6,9 C 6,7 C 3,9 C 78 % 0 lf 1030,1 hPa 0,0 l/m 0 min 0 min 0 W/m 6,3 km/h (2 Bft) 93,48 %
25.03.2017 01:16 6,9 C 6,7 C 3,9 C 78 % 0 lf 1030,1 hPa 0,0 l/m 0 min 0 min 0 W/m 14,6 km/h (3 Bft) 93,62 %
25.03.2017 01:18 6,9 C 6,7 C 3,9 C 78 % 0 lf 1030,1 hPa 0,0 l/m 0 min 0 min 0 W/m 14,6 km/h (3 Bft) 91,49 %
25.03.2017 01:20 6,9 C 6,7 C 3,9 C 78 % 0 lf 1030,0 hPa 0,0 l/m 0 min 0 min 0 W/m 12,6 km/h (3 Bft) 93,62 %
25.03.2017 01:22 6,9 C 6,7 C 3,9 C 78 % 0 lf 1030,0 hPa 0,0 l/m 0 min 0 min 0 W/m 10,5 km/h (2 Bft) 93,62 %
25.03.2017 01:24 6,9 C 6,7 C 3,9 C 78 % 0 lf 1030,0 hPa 0,0 l/m 0 min 0 min 0 W/m 12,6 km/h (3 Bft) 91,49 %
25.03.2017 01:26 6,9 C 6,7 C 3,9 C 78 % 0 lf 1029,9 hPa 0,0 l/m 0 min 0 min 0 W/m 14,6 km/h (3 Bft) 91,30 %
25.03.2017 01:28 6,8 C 6,7 C 4,4 C 79 % 0 lf 1030,0 hPa 0,0 l/m 0 min 0 min 0 W/m 12,6 km/h (3 Bft) 95,74 %
25.03.2017 01:30 6,8 C 6,7 C 4,4 C 79 % 0 lf 1030,0 hPa 0,0 l/m 0 min 0 min 0 W/m 14,6 km/h (3 Bft) 93,62 %
25.03.2017 01:32 6,8 C 6,7 C 3,9 C 78 % 0 lf 1030,0 hPa 0,0 l/m 0 min 0 min 0 W/m 10,5 km/h (2 Bft) 97,87 %
25.03.2017 01:34 6,8 C 6,7 C 3,9 C 78 % 0 lf 1030,0 hPa 0,0 l/m 0 min 0 min 0 W/m 12,6 km/h (3 Bft) 93,62 %
25.03.2017 01:36 6,8 C 6,7 C 3,9 C 78 % 0 lf 1030,0 hPa 0,0 l/m 0 min 0 min 0 W/m 16,7 km/h (3 Bft) 95,74 %
25.03.2017 01:38 6,8 C 6,1 C 3,9 C 79 % 0 lf 1030,0 hPa 0,0 l/m 0 min 0 min 0 W/m 14,6 km/h (3 Bft) 86,96 %
25.03.2017 01:40 6,7 C 6,1 C 3,9 C 79 % 0 lf 1030,1 hPa 0,0 l/m 0 min 0 min 0 W/m 16,7 km/h (3 Bft) 95,74 %
25.03.2017 01:42 6,7 C 6,1 C 3,9 C 79 % 0 lf 1030,0 hPa 0,0 l/m 0 min 0 min 0 W/m 18,8 km/h (3 Bft) 95,74 %
25.03.2017 01:44 6,7 C 6,1 C 3,3 C 79 % 0 lf 1030,0 hPa 0,0 l/m 0 min 0 min 0 W/m 14,6 km/h (3 Bft) 87,23 %
25.03.2017 01:46 6,7 C 6,1 C 3,3 C 79 % 0 lf 1030,0 hPa 0,0 l/m 0 min 0 min 0 W/m 18,8 km/h (3 Bft) 95,74 %
25.03.2017 01:48 6,6 C 6,1 C 3,3 C 79 % 0 lf 1030,0 hPa 0,0 l/m 0 min 0 min 0 W/m 16,7 km/h (3 Bft) 93,62 %
25.03.2017 01:50 6,6 C 6,1 C 3,3 C 79 % 0 lf 1030,0 hPa 0,0 l/m 0 min 0 min 0 W/m 18,8 km/h (3 Bft) 91,30 %
25.03.2017 01:52 6,6 C 6,1 C 3,3 C 79 % 0 lf 1030,0 hPa 0,0 l/m 0 min 0 min 0 W/m 12,6 km/h (3 Bft) 95,74 %
25.03.2017 01:54 6,5 C 5,6 C 3,3 C 79 % 0 lf 1030,0 hPa 0,0 l/m 0 min 0 min 0 W/m 14,6 km/h (3 Bft) 95,74 %
25.03.2017 01:56 6,5 C 5,6 C 3,3 C 79 % 0 lf 1030,0 hPa 0,0 l/m 0 min 0 min 0 W/m 14,6 km/h (3 Bft) 91,49 %
25.03.2017 01:58 6,4 C 5,6 C 3,3 C 79 % 0 lf 1030,0 hPa 0,0 l/m 0 min 0 min 0 W/m 10,5 km/h (2 Bft) 93,62 %
25.03.2017 02:00 6,4 C 5,6 C 3,3 C 79 % 0 lf 1030,0 hPa 0,0 l/m 0 min 0 min 0 W/m 14,6 km/h (3 Bft) 93,62 %
25.03.2017 02:02 6,4 C 5,6 C 3,3 C 80 % 0 lf 1029,9 hPa 0,0 l/m 0 min 0 min 0 W/m 14,6 km/h (3 Bft) 97,83 %
25.03.2017 02:04 6,4 C 5,6 C 3,3 C 80 % 0 lf 1029,8 hPa 0,0 l/m 0 min 0 min 0 W/m 14,6 km/h (3 Bft) 93,62 %
25.03.2017 02:06 6,4 C 5,6 C 2,8 C 80 % 0 lf 1029,9 hPa 0,0 l/m 0 min 0 min 0 W/m 14,6 km/h (3 Bft) 95,74 %
25.03.2017 02:08 6,3 C 5,6 C 3,3 C 80 % 0 lf 1029,8 hPa 0,0 l/m 0 min 0 min 0 W/m 14,6 km/h (3 Bft) 97,87 %
25.03.2017 02:10 6,3 C 5,6 C 2,8 C 80 % 0 lf 1029,8 hPa 0,0 l/m 0 min 0 min 0 W/m 10,5 km/h (2 Bft) 97,87 %
25.03.2017 02:12 6,2 C 5,6 C 2,8 C 80 % 0 lf 1029,9 hPa 0,0 l/m 0 min 0 min 0 W/m 12,6 km/h (3 Bft) 97,87 %
25.03.2017 02:14 6,2 C 5,6 C 2,8 C 80 % 0 lf 1029,9 hPa 0,0 l/m 0 min 0 min 0 W/m 8,4 km/h (2 Bft) 93,48 %
25.03.2017 02:16 6,2 C 5,6 C 2,8 C 80 % 0 lf 1029,8 hPa 0,0 l/m 0 min 0 min 0 W/m 10,5 km/h (2 Bft) 95,74 %
25.03.2017 02:18 6,2 C 5,6 C 2,8 C 80 % 0 lf 1029,8 hPa 0,0 l/m 0 min 0 min 0 W/m 14,6 km/h (3 Bft) 95,74 %
25.03.2017 02:20 6,1 C 5,6 C 2,8 C 80 % 0 lf 1029,8 hPa 0,0 l/m 0 min 0 min 2 W/m 10,5 km/h (2 Bft) 95,74 %
25.03.2017 02:22 6,1 C 5,6 C 2,8 C 80 % 0 lf 1029,8 hPa 0,0 l/m 0 min 0 min 2 W/m 14,6 km/h (3 Bft) 97,87 %
25.03.2017 02:24 6,1 C 5,6 C 2,8 C 81 % 0 lf 1029,8 hPa 0,0 l/m 0 min 0 min 3 W/m 12,6 km/h (3 Bft) 97,83 %
25.03.2017 02:26 6,1 C 5,6 C 2,8 C 81 % 0 lf 1029,7 hPa 0,0 l/m 0 min 0 min 1 W/m 10,5 km/h (2 Bft) 97,87 %
25.03.2017 02:28 6,0 C 5,6 C 2,8 C 81 % 0 lf 1029,7 hPa 0,0 l/m 0 min 0 min 2 W/m 8,4 km/h (2 Bft) 97,87 %
25.03.2017 02:30 6,0 C 5,6 C 2,2 C 81 % 0 lf 1029,6 hPa 0,0 l/m 0 min 0 min 0 W/m 10,5 km/h (2 Bft) 95,74 %
25.03.2017 02:32 5,9 C 5,6 C 2,2 C 81 % 0 lf 1029,6 hPa 0,0 l/m 0 min 0 min 0 W/m 10,5 km/h (2 Bft) 97,87 %
25.03.2017 02:34 5,9 C 5,6 C 2,2 C 81 % 0 lf 1029,6 hPa 0,0 l/m 0 min 0 min 0 W/m 12,6 km/h (3 Bft) 91,49 %
25.03.2017 02:36 5,9 C 5,6 C 2,2 C 81 % 0 lf 1029,6 hPa 0,0 l/m 0 min 0 min 0 W/m 6,3 km/h (2 Bft) 95,65 %
25.03.2017 02:38 5,9 C 5,6 C 2,2 C 81 % 0 lf 1029,5 hPa 0,0 l/m 0 min 0 min 0 W/m 6,3 km/h (2 Bft) 97,87 %
25.03.2017 02:40 5,9 C 5,0 C 2,2 C 81 % 0 lf 1029,5 hPa 0,0 l/m 0 min 0 min 1 W/m 8,4 km/h (2 Bft) 97,87 %
25.03.2017 02:42 5,8 C 5,0 C 1,7 C 81 % 0 lf 1029,5 hPa 0,0 l/m 0 min 0 min 0 W/m 8,4 km/h (2 Bft) 97,87 %
25.03.2017 02:44 5,8 C 5,0 C 1,7 C 81 % 0 lf 1029,5 hPa 0,0 l/m 0 min 0 min 0 W/m 4,2 km/h (1 Bft) 95,74 %
25.03.2017 02:46 5,8 C 5,0 C 1,7 C 81 % 0 lf 1029,5 hPa 0,0 l/m 0 min 0 min 0 W/m 10,5 km/h (2 Bft) 93,62 %
25.03.2017 02:48 5,8 C 5,0 C 1,7 C 81 % 0 lf 1029,5 hPa 0,0 l/m 0 min 0 min 0 W/m 6,3 km/h (2 Bft) 93,48 %
25.03.2017 02:50 5,7 C 5,0 C 1,7 C 81 % 0 lf 1029,5 hPa 0,0 l/m 0 min 0 min 0 W/m 8,4 km/h (2 Bft) 82,98 %
25.03.2017 02:52 5,7 C 5,0 C 1,7 C 81 % 0 lf 1029,5 hPa 0,0 l/m 0 min 0 min 0 W/m 8,4 km/h (2 Bft) 95,74 %
25.03.2017 02:54 5,7 C 4,4 C 1,7 C 81 % 0 lf 1029,5 hPa 0,0 l/m 0 min 0 min 0 W/m 8,4 km/h (2 Bft) 97,87 %
25.03.2017 02:56 5,6 C 5,0 C 2,2 C 81 % 0 lf 1029,4 hPa 0,0 l/m 0 min 0 min 0 W/m 8,4 km/h (2 Bft) 93,62 %
25.03.2017 02:58 5,6 C 5,0 C 1,7 C 81 % 0 lf 1029,4 hPa 0,0 l/m 0 min 0 min 0 W/m 10,5 km/h (2 Bft) 93,62 %
25.03.2017 03:00 5,6 C 5,0 C 1,7 C 81 % 0 lf 1029,4 hPa 0,0 l/m 0 min 0 min 0 W/m 10,5 km/h (2 Bft) 95,65 %
25.03.2017 03:03 5,5 C 5,0 C 1,7 C 82 % 0 lf 1029,4 hPa 0,0 l/m 0 min 0 min 0 W/m 8,4 km/h (2 Bft) 93,90 %
25.03.2017 03:04 5,4 C 5,0 C 1,7 C 82 % 0 lf 1029,4 hPa 0,0 l/m 0 min 0 min 0 W/m 6,3 km/h (2 Bft) 100,00 %
25.03.2017 03:06 5,4 C 5,0 C 1,7 C 82 % 0 lf 1029,4 hPa 0,0 l/m 0 min 0 min 0 W/m 10,5 km/h (2 Bft) 91,49 %
25.03.2017 03:08 5,4 C 5,0 C 1,7 C 82 % 0 lf 1029,4 hPa 0,0 l/m 0 min 0 min 0 W/m 8,4 km/h (2 Bft) 97,87 %
25.03.2017 03:10 5,4 C 5,0 C 1,7 C 82 % 0 lf 1029,4 hPa 0,0 l/m 0 min 0 min 0 W/m 14,6 km/h (3 Bft) 95,74 %
25.03.2017 03:12 5,3 C 5,0 C 2,2 C 83 % 0 lf 1029,4 hPa 0,0 l/m 0 min 0 min 0 W/m 16,7 km/h (3 Bft) 95,65 %
25.03.2017 03:14 5,3 C 5,0 C 2,2 C 83 % 0 lf 1029,4 hPa 0,0 l/m 0 min 0 min 0 W/m 10,5 km/h (2 Bft) 97,87 %
25.03.2017 03:16 5,3 C 5,0 C 2,2 C 83 % 0 lf 1029,4 hPa 0,0 l/m 0 min 0 min 0 W/m 10,5 km/h (2 Bft) 93,62 %
25.03.2017 03:18 5,2 C 5,0 C 2,2 C 83 % 0 lf 1029,4 hPa 0,0 l/m 0 min 0 min 0 W/m 10,5 km/h (2 Bft) 97,87 %
25.03.2017 03:20 5,2 C 5,0 C 2,2 C 83 % 0 lf 1029,4 hPa 0,0 l/m 0 min 0 min 0 W/m 10,5 km/h (2 Bft) 97,87 %
25.03.2017 03:22 5,2 C 5,0 C 2,2 C 83 % 0 lf 1029,4 hPa 0,0 l/m 0 min 0 min 0 W/m 12,6 km/h (3 Bft) 100,00 %
25.03.2017 03:24 5,2 C 5,0 C 2,2 C 83 % 0 lf 1029,3 hPa 0,0 l/m 0 min 0 min 0 W/m 16,7 km/h (3 Bft) 97,87 %
25.03.2017 03:26 5,2 C 5,0 C 2,2 C 84 % 0 lf 1029,4 hPa 0,0 l/m 0 min 0 min 0 W/m 18,8 km/h (3 Bft) 97,87 %
25.03.2017 03:28 5,2 C 5,0 C 2,2 C 84 % 0 lf 1029,4 hPa 0,0 l/m 0 min 0 min 0 W/m 14,6 km/h (3 Bft) 100,00 %
25.03.2017 03:30 5,1 C 5,0 C 2,2 C 84 % 0 lf 1029,3 hPa 0,0 l/m 0 min 0 min 0 W/m 14,6 km/h (3 Bft) 100,00 %
25.03.2017 03:32 5,1 C 5,0 C 2,2 C 84 % 0 lf 1029,3 hPa 0,0 l/m 0 min 0 min 0 W/m 18,8 km/h (3 Bft) 93,62 %
25.03.2017 03:34 5,1 C 5,0 C 2,2 C 84 % 0 lf 1029,3 hPa 0,0 l/m 0 min 0 min 0 W/m 18,8 km/h (3 Bft) 97,83 %
25.03.2017 03:36 5,1 C 5,0 C 2,2 C 84 % 0 lf 1029,4 hPa 0,0 l/m 0 min 0 min 0 W/m 10,5 km/h (2 Bft) 100,00 %
25.03.2017 03:38 5,1 C 5,0 C 2,2 C 84 % 0 lf 1029,4 hPa 0,0 l/m 0 min 0 min 0 W/m 16,7 km/h (3 Bft) 100,00 %
25.03.2017 03:40 5,1 C 5,0 C 2,2 C 84 % 0 lf 1029,4 hPa 0,0 l/m 0 min 0 min 0 W/m 10,5 km/h (2 Bft) 97,87 %
25.03.2017 03:42 5,1 C 5,0 C 2,8 C 84 % 0 lf 1029,4 hPa 0,0 l/m 0 min 0 min 0 W/m 14,6 km/h (3 Bft) 100,00 %
25.03.2017 03:44 5,1 C 5,0 C 2,8 C 85 % 0 lf 1029,3 hPa 0,0 l/m 0 min 0 min 0 W/m 16,7 km/h (3 Bft) 93,62 %
25.03.2017 03:46 5,1 C 5,0 C 2,2 C 85 % 0 lf 1029,4 hPa 0,0 l/m 0 min 0 min 0 W/m 14,6 km/h (3 Bft) 95,65 %
25.03.2017 03:48 5,1 C 5,0 C 2,2 C 85 % 0 lf 1029,3 hPa 0,0 l/m 0 min 0 min 0 W/m 16,7 km/h (3 Bft) 97,87 %
25.03.2017 03:50 5,1 C 5,0 C 2,2 C 85 % 0 lf 1029,3 hPa 0,0 l/m 0 min 0 min 0 W/m 8,4 km/h (2 Bft) 97,87 %
25.03.2017 03:52 5,0 C 5,0 C 2,2 C 85 % 0 lf 1029,3 hPa 0,0 l/m 0 min 0 min 0 W/m 16,7 km/h (3 Bft) 97,87 %
25.03.2017 03:54 5,1 C 5,0 C 2,2 C 85 % 0 lf 1029,3 hPa 0,0 l/m 0 min 0 min 0 W/m 14,6 km/h (3 Bft) 97,87 %
25.03.2017 03:56 5,0 C 5,0 C 2,2 C 85 % 0 lf 1029,3 hPa 0,0 l/m 0 min 0 min 0 W/m 10,5 km/h (2 Bft) 95,74 %
25.03.2017 03:58 5,0 C 5,0 C 2,2 C 85 % 0 lf 1029,3 hPa 0,0 l/m 0 min 0 min 0 W/m 10,5 km/h (2 Bft) 95,65 %
25.03.2017 04:00 5,0 C 5,0 C 2,2 C 85 % 0 lf 1029,3 hPa 0,0 l/m 0 min 0 min 0 W/m 14,6 km/h (3 Bft) 97,87 %
25.03.2017 04:05 5,0 C 5,0 C 2,2 C 85 % 0 lf 1029,3 hPa 0,0 l/m 0 min 0 min 0 W/m 10,5 km/h (2 Bft) 93,83 %
25.03.2017 04:06 5,0 C 5,0 C 2,2 C 85 % 0 lf 1029,3 hPa 0,0 l/m 0 min 0 min 0 W/m 14,6 km/h (3 Bft) 91,67 %
25.03.2017 04:08 5,0 C 4,4 C 2,2 C 85 % 0 lf 1029,3 hPa 0,0 l/m 0 min 0 min 0 W/m 14,6 km/h (3 Bft) 93,62 %
25.03.2017 04:10 4,9 C 4,4 C 1,7 C 85 % 0 lf 1029,3 hPa 0,0 l/m 0 min 0 min 0 W/m 8,4 km/h (2 Bft) 93,48 %
25.03.2017 04:12 4,9 C 4,4 C 2,2 C 85 % 0 lf 1029,2 hPa 0,0 l/m 0 min 0 min 0 W/m 8,4 km/h (2 Bft) 93,62 %
25.03.2017 04:14 4,9 C 4,4 C 2,2 C 85 % 0 lf 1029,3 hPa 0,0 l/m 0 min 0 min 0 W/m 8,4 km/h (2 Bft) 93,62 %
25.03.2017 04:16 4,9 C 4,4 C 1,7 C 85 % 0 lf 1029,3 hPa 0,0 l/m 0 min 0 min 0 W/m 8,4 km/h (2 Bft) 93,48 %
25.03.2017 04:18 4,9 C 5,0 C 1,7 C 85 % 0 lf 1029,3 hPa 0,0 l/m 0 min 0 min 0 W/m 8,4 km/h (2 Bft) 91,49 %
25.03.2017 04:20 4,9 C 5,0 C 2,2 C 85 % 0 lf 1029,3 hPa 0,0 l/m 0 min 0 min 0 W/m 6,3 km/h (2 Bft) 91,49 %
25.03.2017 04:22 4,9 C 4,4 C 1,7 C 85 % 0 lf 1029,3 hPa 0,0 l/m 0 min 0 min 0 W/m 8,4 km/h (2 Bft) 93,48 %
25.03.2017 04:24 4,9 C 4,4 C 1,7 C 85 % 0 lf 1029,2 hPa 0,0 l/m 0 min 0 min 0 W/m 6,3 km/h (2 Bft) 91,49 %
25.03.2017 04:26 4,8 C 4,4 C 1,7 C 85 % 0 lf 1029,3 hPa 0,0 l/m 0 min 0 min 0 W/m 14,6 km/h (3 Bft) 95,74 %
25.03.2017 04:28 4,8 C 4,4 C 1,7 C 85 % 0 lf 1029,2 hPa 0,0 l/m 0 min 0 min 0 W/m 16,7 km/h (3 Bft) 93,62 %
25.03.2017 04:30 4,8 C 5,0 C 1,7 C 85 % 0 lf 1029,3 hPa 0,0 l/m 0 min 0 min 0 W/m 8,4 km/h (2 Bft) 95,74 %
25.03.2017 04:32 4,8 C 5,0 C 2,2 C 85 % 0 lf 1029,3 hPa 0,0 l/m 0 min 0 min 0 W/m 10,5 km/h (2 Bft) 93,62 %
25.03.2017 04:34 4,8 C 5,0 C 2,2 C 85 % 0 lf 1029,3 hPa 0,0 l/m 0 min 0 min 0 W/m 10,5 km/h (2 Bft) 97,83 %
25.03.2017 04:36 4,8 C 5,0 C 2,2 C 85 % 0 lf 1029,3 hPa 0,0 l/m 0 min 0 min 0 W/m 14,6 km/h (3 Bft) 95,74 %
25.03.2017 04:38 4,8 C 5,0 C 2,2 C 85 % 0 lf 1029,3 hPa 0,0 l/m 0 min 0 min 1 W/m 10,5 km/h (2 Bft) 95,74 %
25.03.2017 04:40 4,8 C 4,4 C 2,2 C 85 % 0 lf 1029,3 hPa 0,0 l/m 0 min 0 min 2 W/m 10,5 km/h (2 Bft) 95,74 %
25.03.2017 04:42 4,7 C 4,4 C 2,2 C 85 % 0 lf 1029,2 hPa 0,0 l/m 0 min 0 min 0 W/m 10,5 km/h (2 Bft) 89,36 %
25.03.2017 04:44 4,7 C 4,4 C 1,7 C 85 % 0 lf 1029,3 hPa 0,0 l/m 0 min 0 min 0 W/m 8,4 km/h (2 Bft) 93,48 %
25.03.2017 04:46 4,7 C 4,4 C 1,7 C 85 % 0 lf 1029,3 hPa 0,0 l/m 0 min 0 min 0 W/m 10,5 km/h (2 Bft) 95,74 %
25.03.2017 04:48 4,7 C 4,4 C 1,7 C 85 % 0 lf 1029,3 hPa 0,0 l/m 0 min 0 min 0 W/m 8,4 km/h (2 Bft) 93,62 %
25.03.2017 04:50 4,7 C 4,4 C 1,7 C 85 % 0 lf 1029,2 hPa 0,0 l/m 0 min 0 min 0 W/m 8,4 km/h (2 Bft) 95,74 %
25.03.2017 04:52 4,7 C 3,9 C 1,7 C 85 % 0 lf 1029,2 hPa 0,0 l/m 0 min 0 min 0 W/m 10,5 km/h (2 Bft) 93,62 %
25.03.2017 04:54 4,7 C 3,9 C 1,7 C 85 % 0 lf 1029,2 hPa 0,0 l/m 0 min 0 min 0 W/m 10,5 km/h (2 Bft) 93,62 %
25.03.2017 04:56 4,7 C 3,9 C 1,7 C 85 % 0 lf 1029,2 hPa 0,0 l/m 0 min 0 min 0 W/m 10,5 km/h (2 Bft) 97,83 %
25.03.2017 04:58 4,6 C 3,9 C 1,7 C 85 % 0 lf 1029,2 hPa 0,0 l/m 0 min 0 min 0 W/m 10,5 km/h (2 Bft) 97,87 %
25.03.2017 05:00 4,6 C 4,4 C 1,7 C 85 % 0 lf 1029,2 hPa 0,0 l/m 0 min 0 min 0 W/m 8,4 km/h (2 Bft) 97,87 %
25.03.2017 05:02 4,6 C 3,9 C 1,1 C 85 % 0 lf 1029,3 hPa 0,0 l/m 0 min 0 min 0 W/m 12,6 km/h (3 Bft) 95,74 %
25.03.2017 05:04 4,6 C 3,9 C 1,1 C 86 % 0 lf 1029,3 hPa 0,0 l/m 0 min 0 min 0 W/m 10,5 km/h (2 Bft) 95,74 %
25.03.2017 05:06 4,6 C 3,9 C 1,1 C 86 % 0 lf 1029,2 hPa 0,0 l/m 0 min 0 min 0 W/m 10,5 km/h (2 Bft) 97,87 %
25.03.2017 05:08 4,5 C 4,4 C 1,7 C 86 % 0 lf 1029,2 hPa 0,0 l/m 0 min 0 min 0 W/m 12,6 km/h (3 Bft) 97,83 %
25.03.2017 05:10 4,5 C 3,9 C 1,7 C 86 % 0 lf 1029,2 hPa 0,0 l/m 0 min 0 min 0 W/m 10,5 km/h (2 Bft) 93,62 %
25.03.2017 05:12 4,5 C 3,9 C 1,7 C 86 % 0 lf 1029,2 hPa 0,0 l/m 0 min 0 min 0 W/m 8,4 km/h (2 Bft) 97,87 %
25.03.2017 05:14 4,4 C 4,4 C 1,1 C 86 % 0 lf 1029,2 hPa 0,0 l/m 0 min 0 min 0 W/m 8,4 km/h (2 Bft) 97,87 %
25.03.2017 05:16 4,4 C 4,4 C 1,7 C 86 % 0 lf 1029,1 hPa 0,0 l/m 0 min 0 min 0 W/m 12,6 km/h (3 Bft) 95,74 %
25.03.2017 05:18 4,4 C 4,4 C 1,7 C 86 % 0 lf 1029,1 hPa 0,0 l/m 0 min 0 min 0 W/m 8,4 km/h (2 Bft) 97,87 %
25.03.2017 05:20 4,4 C 4,4 C 1,7 C 86 % 0 lf 1029,2 hPa 0,0 l/m 0 min 0 min 0 W/m 12,6 km/h (3 Bft) 100,00 %
25.03.2017 05:22 4,4 C 4,4 C 1,7 C 86 % 0 lf 1029,1 hPa 0,0 l/m 0 min 0 min 0 W/m 16,7 km/h (3 Bft) 97,87 %
25.03.2017 05:24 4,4 C 4,4 C 1,7 C 86 % 0 lf 1029,1 hPa 0,0 l/m 0 min 0 min 0 W/m 12,6 km/h (3 Bft) 97,87 %
25.03.2017 05:26 4,4 C 4,4 C 1,7 C 86 % 0 lf 1029,1 hPa 0,0 l/m 0 min 0 min 0 W/m 10,5 km/h (2 Bft) 100,00 %
25.03.2017 05:28 4,4 C 4,4 C 1,7 C 86 % 0 lf 1029,2 hPa 0,0 l/m 0 min 0 min 0 W/m 14,6 km/h (3 Bft) 97,87 %
25.03.2017 05:30 4,3 C 4,4 C 1,7 C 86 % 0 lf 1029,2 hPa 0,0 l/m 0 min 0 min 0 W/m 10,5 km/h (2 Bft) 97,87 %
25.03.2017 05:32 4,3 C 4,4 C 1,7 C 86 % 0 lf 1029,2 hPa 0,0 l/m 0 min 0 min 0 W/m 14,6 km/h (3 Bft) 97,83 %
25.03.2017 05:34 4,3 C 4,4 C 1,7 C 86 % 0 lf 1029,1 hPa 0,0 l/m 0 min 0 min 0 W/m 8,4 km/h (2 Bft) 100,00 %
25.03.2017 05:36 4,3 C 4,4 C 1,7 C 86 % 0 lf 1029,1 hPa 0,0 l/m 0 min 0 min 0 W/m 14,6 km/h (3 Bft) 97,87 %
25.03.2017 05:38 4,3 C 4,4 C 1,7 C 87 % 0 lf 1029,1 hPa 0,0 l/m 0 min 0 min 0 W/m 14,6 km/h (3 Bft) 95,74 %
25.03.2017 05:40 4,3 C 4,4 C 1,7 C 87 % 0 lf 1029,2 hPa 0,0 l/m 0 min 0 min 0 W/m 10,5 km/h (2 Bft) 97,87 %
25.03.2017 05:42 4,3 C 4,4 C 1,7 C 87 % 0 lf 1029,2 hPa 0,0 l/m 0 min 0 min 0 W/m 14,6 km/h (3 Bft) 97,87 %
25.03.2017 05:44 4,3 C 3,9 C 1,7 C 87 % 0 lf 1029,2 hPa 0,0 l/m 0 min 0 min 0 W/m 14,6 km/h (3 Bft) 100,00 %
25.03.2017 05:46 4,3 C 3,9 C 1,7 C 87 % 0 lf 1029,2 hPa 0,0 l/m 0 min 0 min 0 W/m 10,5 km/h (2 Bft) 95,74 %
25.03.2017 05:48 4,3 C 4,4 C 1,7 C 87 % 0 lf 1029,2 hPa 0,0 l/m 0 min 0 min 0 W/m 10,5 km/h (2 Bft) 91,49 %
25.03.2017 05:50 4,3 C 4,4 C 1,7 C 87 % 0 lf 1029,1 hPa 0,0 l/m 0 min 0 min 0 W/m 10,5 km/h (2 Bft) 97,87 %
25.03.2017 05:52 4,3 C 4,4 C 1,7 C 87 % 0 lf 1029,2 hPa 0,0 l/m 0 min 0 min 0 W/m 14,6 km/h (3 Bft) 97,87 %
25.03.2017 05:54 4,3 C 3,9 C 1,7 C 87 % 0 lf 1029,2 hPa 0,0 l/m 0 min 0 min 0 W/m 14,6 km/h (3 Bft) 100,00 %
25.03.2017 05:56 4,3 C 3,9 C 1,7 C 87 % 0 lf 1029,1 hPa 0,0 l/m 0 min 0 min 0 W/m 16,7 km/h (3 Bft) 97,87 %
25.03.2017 05:58 4,3 C 3,9 C 1,7 C 87 % 0 lf 1029,2 hPa 0,0 l/m 0 min 0 min 0 W/m 14,6 km/h (3 Bft) 97,87 %
25.03.2017 06:00 4,3 C 4,4 C 1,7 C 87 % 0 lf 1029,2 hPa 0,0 l/m 0 min 0 min 0 W/m 14,6 km/h (3 Bft) 100,00 %
25.03.2017 06:02 4,3 C 4,4 C 1,7 C 87 % 0 lf 1029,2 hPa 0,0 l/m 0 min 0 min 0 W/m 10,5 km/h (2 Bft) 95,74 %
25.03.2017 06:04 4,3 C 3,9 C 1,7 C 87 % 0 lf 1029,2 hPa 0,0 l/m 0 min 0 min 0 W/m 6,3 km/h (2 Bft) 97,87 %
25.03.2017 06:06 4,3 C 3,9 C 1,7 C 87 % 0 lf 1029,1 hPa 0,0 l/m 0 min 0 min 0 W/m 14,6 km/h (3 Bft) 100,00 %
25.03.2017 06:08 4,3 C 3,9 C 1,7 C 87 % 0 lf 1029,2 hPa 0,0 l/m 0 min 0 min 0 W/m 18,8 km/h (3 Bft) 97,87 %
25.03.2017 06:10 4,3 C 3,9 C 1,7 C 87 % 0 lf 1029,2 hPa 0,0 l/m 0 min 0 min 0 W/m 14,6 km/h (3 Bft) 89,36 %
25.03.2017 06:12 4,3 C 4,4 C 2,2 C 87 % 0 lf 1029,2 hPa 0,0 l/m 0 min 0 min 2 W/m 16,7 km/h (3 Bft) 93,62 %
25.03.2017 06:14 4,3 C 4,4 C 2,2 C 87 % 0 lf 1029,2 hPa 0,0 l/m 0 min 0 min 1 W/m 12,6 km/h (3 Bft) 97,87 %
25.03.2017 06:16 4,3 C 4,4 C 2,2 C 87 % 0 lf 1029,2 hPa 0,0 l/m 0 min 0 min 1 W/m 12,6 km/h (3 Bft) 95,74 %
25.03.2017 06:18 4,3 C 4,4 C 2,2 C 87 % 0 lf 1029,2 hPa 0,0 l/m 0 min 0 min 2 W/m 14,6 km/h (3 Bft) 97,83 %
25.03.2017 06:20 4,3 C 4,4 C 2,2 C 87 % 0 lf 1029,2 hPa 0,0 l/m 0 min 0 min 2 W/m 8,4 km/h (2 Bft) 93,62 %
25.03.2017 06:22 4,3 C 4,4 C 2,2 C 87 % 0 lf 1029,2 hPa 0,0 l/m 0 min 0 min 3 W/m 14,6 km/h (3 Bft) 97,87 %
25.03.2017 06:24 4,3 C 4,4 C 1,7 C 87 % 0 lf 1029,2 hPa 0,0 l/m 0 min 0 min 4 W/m 10,5 km/h (2 Bft) 97,87 %
25.03.2017 06:26 4,3 C 4,4 C 1,7 C 87 % 0 lf 1029,2 hPa 0,0 l/m 0 min 0 min 4 W/m 12,6 km/h (3 Bft) 91,49 %
25.03.2017 06:28 4,3 C 4,4 C 1,7 C 87 % 0 lf 1029,2 hPa 0,0 l/m 0 min 0 min 5 W/m 6,3 km/h (2 Bft) 93,62 %
25.03.2017 06:30 4,3 C 3,9 C 1,7 C 87 % 0 lf 1029,2 hPa 0,0 l/m 0 min 0 min 5 W/m 12,6 km/h (3 Bft) 93,48 %
25.03.2017 06:32 4,3 C 3,9 C 2,2 C 87 % 0 lf 1029,2 hPa 0,0 l/m 0 min 0 min 7 W/m 8,4 km/h (2 Bft) 91,49 %
25.03.2017 06:34 4,3 C 3,9 C 2,2 C 87 % 0 lf 1029,2 hPa 0,0 l/m 0 min 0 min 7 W/m 6,3 km/h (2 Bft) 95,74 %
25.03.2017 06:36 4,3 C 3,9 C 1,7 C 87 % 0 lf 1029,2 hPa 0,0 l/m 0 min 0 min 8 W/m 14,6 km/h (3 Bft) 93,62 %
25.03.2017 06:38 4,3 C 3,9 C 1,7 C 87 % 0 lf 1029,1 hPa 0,0 l/m 0 min 0 min 9 W/m 10,5 km/h (2 Bft) 93,62 %
25.03.2017 06:40 4,3 C 4,4 C 1,7 C 87 % 0 lf 1029,1 hPa 0,0 l/m 0 min 0 min 19 W/m 10,5 km/h (2 Bft) 93,62 %
25.03.2017 06:42 4,3 C 4,4 C 1,7 C 87 % 0 lf 1029,1 hPa 0,0 l/m 2 min 0 min 20 W/m 12,6 km/h (3 Bft) 93,48 %
25.03.2017 06:44 4,3 C 4,4 C 1,7 C 87 % 0 lf 1029,2 hPa 0,0 l/m 2 min 0 min 23 W/m 10,5 km/h (2 Bft) 91,49 %
25.03.2017 06:46 4,3 C 4,4 C 1,7 C 87 % 0 lf 1029,2 hPa 0,0 l/m 2 min 0 min 25 W/m 12,6 km/h (3 Bft) 93,62 %
25.03.2017 06:48 4,3 C 4,4 C 1,7 C 87 % 0 lf 1029,2 hPa 0,0 l/m 2 min 0 min 26 W/m 10,5 km/h (2 Bft) 93,62 %
25.03.2017 06:50 4,3 C 4,4 C 1,7 C 87 % 0 lf 1029,2 hPa 0,0 l/m 2 min 0 min 27 W/m 12,6 km/h (3 Bft) 93,62 %
25.03.2017 06:52 4,3 C 4,4 C 1,7 C 87 % 0 lf 1029,2 hPa 0,0 l/m 2 min 0 min 35 W/m 10,5 km/h (2 Bft) 93,48 %
25.03.2017 06:54 4,3 C 4,4 C 1,7 C 87 % 0 lf 1029,2 hPa 0,0 l/m 2 min 0 min 35 W/m 8,4 km/h (2 Bft) 93,62 %
25.03.2017 06:56 4,3 C 4,4 C 1,7 C 87 % 0 lf 1029,2 hPa 0,0 l/m 2 min 0 min 36 W/m 10,5 km/h (2 Bft) 91,49 %
25.03.2017 06:58 4,3 C 4,4 C 1,7 C 87 % 0 lf 1029,2 hPa 0,0 l/m 0 min 0 min 36 W/m 10,5 km/h (2 Bft) 93,62 %
25.03.2017 07:00 4,3 C 4,4 C 1,7 C 87 % 0 lf 1029,2 hPa 0,0 l/m 0 min 0 min 39 W/m 16,7 km/h (3 Bft) 85,11 %
25.03.2017 07:02 4,3 C 4,4 C 1,7 C 87 % 0 lf 1029,2 hPa 0,0 l/m 2 min 0 min 43 W/m 12,6 km/h (3 Bft) 89,36 %
25.03.2017 07:04 4,3 C 4,4 C 2,2 C 87 % 0 lf 1029,2 hPa 0,0 l/m 2 min 0 min 45 W/m 10,5 km/h (2 Bft) 93,48 %
25.03.2017 07:06 4,2 C 5,0 C 2,2 C 87 % 0 lf 1029,2 hPa 0,0 l/m 2 min 0 min 49 W/m 12,6 km/h (3 Bft) 93,62 %
25.03.2017 07:08 4,2 C 5,0 C 2,2 C 87 % 0 lf 1029,2 hPa 0,0 l/m 0 min 0 min 49 W/m 12,6 km/h (3 Bft) 91,49 %
25.03.2017 07:10 4,3 C 5,0 C 2,2 C 87 % 0 lf 1029,2 hPa 0,0 l/m 2 min 0 min 61 W/m 10,5 km/h (2 Bft) 93,62 %
25.03.2017 07:12 4,3 C 5,0 C 2,2 C 87 % 0 lf 1029,2 hPa 0,0 l/m 2 min 0 min 69 W/m 10,5 km/h (2 Bft) 95,74 %
25.03.2017 07:14 4,3 C 5,0 C 2,2 C 87 % 0 lf 1029,2 hPa 0,0 l/m 2 min 0 min 70 W/m 10,5 km/h (2 Bft) 91,49 %
25.03.2017 07:16 4,3 C 5,0 C 2,2 C 87 % 0 lf 1029,2 hPa 0,0 l/m 2 min 0 min 72 W/m 14,6 km/h (3 Bft) 91,30 %
25.03.2017 07:18 4,3 C 5,0 C 2,2 C 87 % 0 lf 1029,2 hPa 0,0 l/m 2 min 0 min 75 W/m 14,6 km/h (3 Bft) 91,49 %
25.03.2017 07:20 4,3 C 5,0 C 2,2 C 87 % 0 lf 1029,2 hPa 0,0 l/m 2 min 0 min 79 W/m 16,7 km/h (3 Bft) 96,61 %
25.03.2017 07:22 4,3 C 5,0 C 2,8 C 87 % 0 lf 1029,2 hPa 0,0 l/m 2 min 0 min 83 W/m 12,6 km/h (3 Bft) 97,14 %
25.03.2017 07:24 4,3 C 5,6 C 2,8 C 87 % 0 lf 1029,2 hPa 0,0 l/m 2 min 0 min 90 W/m 10,5 km/h (2 Bft) 97,87 %
25.03.2017 07:26 4,3 C 5,6 C 2,8 C 87 % 0 lf 1029,1 hPa 0,0 l/m 2 min 0 min 96 W/m 14,6 km/h (3 Bft) 95,74 %
25.03.2017 07:28 4,3 C 5,6 C 2,8 C 87 % 0 lf 1029,1 hPa 0,0 l/m 2 min 0 min 98 W/m 10,5 km/h (2 Bft) 86,96 %
25.03.2017 07:30 4,3 C 5,6 C 2,8 C 87 % 0 lf 1029,1 hPa 0,0 l/m 2 min 0 min 99 W/m 10,5 km/h (2 Bft) 95,74 %
25.03.2017 07:32 4,3 C 5,6 C 2,8 C 87 % 0 lf 1029,1 hPa 0,0 l/m 2 min 0 min 106 W/m 12,6 km/h (3 Bft) 91,49 %
25.03.2017 07:34 4,4 C 5,6 C 2,8 C 87 % 0 lf 1029,2 hPa 0,0 l/m 2 min 0 min 119 W/m 14,6 km/h (3 Bft) 97,87 %
25.03.2017 07:36 4,4 C 6,1 C 3,3 C 87 % 0 lf 1029,2 hPa 0,0 l/m 2 min 0 min 128 W/m 12,6 km/h (3 Bft) 95,74 %
25.03.2017 07:38 4,4 C 6,7 C 3,3 C 87 % 0 lf 1029,2 hPa 0,0 l/m 2 min 0 min 136 W/m 14,6 km/h (3 Bft) 93,62 %
25.03.2017 07:40 4,5 C 8,3 C 3,3 C 87 % 0 lf 1029,2 hPa 0,0 l/m 2 min 0 min 144 W/m 14,6 km/h (3 Bft) 97,83 %
25.03.2017 07:42 4,5 C 9,4 C 3,3 C 87 % 0 lf 1029,1 hPa 0,0 l/m 2 min 0 min 151 W/m 14,6 km/h (3 Bft) 91,49 %
25.03.2017 07:44 4,6 C 10,0 C 3,9 C 87 % 0 lf 1029,2 hPa 0,0 l/m 2 min 0 min 157 W/m 18,8 km/h (3 Bft) 95,74 %
25.03.2017 07:46 4,7 C 11,1 C 3,9 C 88 % 0 lf 1029,2 hPa 0,0 l/m 2 min 0 min 163 W/m 25,1 km/h (4 Bft) 93,62 %
25.03.2017 07:48 4,7 C 11,1 C 3,9 C 88 % 0 lf 1029,2 hPa 0,0 l/m 2 min 0 min 169 W/m 23,0 km/h (4 Bft) 95,74 %
25.03.2017 07:50 4,9 C 11,7 C 4,4 C 88 % 0 lf 1029,1 hPa 0,0 l/m 2 min 0 min 175 W/m 18,8 km/h (3 Bft) 95,74 %
25.03.2017 07:52 5,0 C 12,2 C 4,4 C 87 % 0 lf 1029,1 hPa 0,0 l/m 2 min 0 min 177 W/m 12,6 km/h (3 Bft) 95,65 %
25.03.2017 07:54 5,1 C 12,2 C 4,4 C 87 % 0 lf 1029,1 hPa 0,0 l/m 2 min 0 min 182 W/m 16,7 km/h (3 Bft) 95,74 %
25.03.2017 07:56 5,2 C 12,2 C 4,4 C 87 % 0 lf 1029,1 hPa 0,0 l/m 2 min 0 min 181 W/m 14,6 km/h (3 Bft) 100,00 %
25.03.2017 07:58 5,3 C 12,2 C 5,0 C 87 % 0 lf 1029,1 hPa 0,0 l/m 2 min 0 min 178 W/m 16,7 km/h (3 Bft) 95,74 %
25.03.2017 08:00 5,4 C 12,8 C 5,0 C 87 % 0 lf 1029,2 hPa 0,0 l/m 2 min 0 min 181 W/m 20,9 km/h (4 Bft) 97,87 %
25.03.2017 08:02 5,5 C 12,8 C 5,0 C 87 % 0 lf 1029,1 hPa 0,0 l/m 2 min 0 min 185 W/m 16,7 km/h (3 Bft) 97,83 %
25.03.2017 08:04 5,7 C 12,8 C 5,0 C 87 % 0 lf 1029,2 hPa 0,0 l/m 2 min 0 min 203 W/m 16,7 km/h (3 Bft) 97,87 %
25.03.2017 08:06 5,7 C 13,3 C 5,0 C 86 % 0 lf 1029,2 hPa 0,0 l/m 2 min 0 min 207 W/m 14,6 km/h (3 Bft) 100,00 %
25.03.2017 08:08 5,9 C 13,9 C 5,6 C 86 % 0 lf 1029,2 hPa 0,0 l/m 2 min 0 min 214 W/m 18,8 km/h (3 Bft) 97,87 %
25.03.2017 08:10 6,0 C 13,3 C 5,6 C 86 % 0 lf 1029,2 hPa 0,0 l/m 2 min 0 min 220 W/m 18,8 km/h (3 Bft) 95,74 %
25.03.2017 08:12 6,1 C 13,9 C 5,6 C 85 % 0 lf 1029,2 hPa 0,0 l/m 2 min 0 min 228 W/m 14,6 km/h (3 Bft) 95,74 %
25.03.2017 08:14 6,2 C 14,4 C 6,1 C 85 % 0 lf 1029,2 hPa 0,0 l/m 2 min 0 min 238 W/m 10,5 km/h (2 Bft) 100,00 %
25.03.2017 08:16 6,4 C 13,9 C 6,1 C 85 % 0 lf 1029,2 hPa 0,0 l/m 2 min 0 min 233 W/m 18,8 km/h (3 Bft) 97,87 %
25.03.2017 08:18 6,5 C 13,3 C 6,1 C 84 % 0 lf 1029,2 hPa 0,0 l/m 2 min 0 min 240 W/m 20,9 km/h (4 Bft) 100,00 %
25.03.2017 08:20 6,7 C 14,4 C 6,1 C 84 % 0 lf 1029,2 hPa 0,0 l/m 2 min 0 min 260 W/m 16,7 km/h (3 Bft) 100,00 %
25.03.2017 08:22 6,8 C 15,0 C 6,1 C 83 % 0 lf 1029,2 hPa 0,0 l/m 2 min 0 min 261 W/m 10,5 km/h (2 Bft) 97,87 %
25.03.2017 08:24 6,9 C 15,0 C 6,7 C 83 % 0 lf 1029,3 hPa 0,0 l/m 2 min 0 min 275 W/m 14,6 km/h (3 Bft) 97,87 %
25.03.2017 08:26 7,1 C 15,6 C 6,7 C 83 % 0 lf 1029,3 hPa 0,0 l/m 2 min 0 min 286 W/m 18,8 km/h (3 Bft) 93,48 %
25.03.2017 08:28 7,2 C 15,6 C 6,7 C 82 % 0 lf 1029,2 hPa 0,0 l/m 2 min 0 min 302 W/m 16,7 km/h (3 Bft) 100,00 %
25.03.2017 08:30 7,3 C 16,1 C 7,2 C 82 % 0 lf 1029,3 hPa 0,0 l/m 2 min 0 min 311 W/m 20,9 km/h (4 Bft) 100,00 %
25.03.2017 08:32 7,5 C 16,7 C 7,2 C 81 % 0 lf 1029,3 hPa 0,0 l/m 2 min 0 min 315 W/m 14,6 km/h (3 Bft) 100,00 %
25.03.2017 08:34 7,7 C 17,2 C 7,8 C 80 % 0 lf 1029,3 hPa 0,0 l/m 2 min 0 min 321 W/m 12,6 km/h (3 Bft) 97,87 %
25.03.2017 08:36 7,8 C 17,8 C 7,8 C 80 % 0 lf 1029,3 hPa 0,0 l/m 2 min 0 min 327 W/m 18,8 km/h (3 Bft) 95,74 %
25.03.2017 08:38 7,9 C 18,9 C 8,3 C 80 % 0 lf 1029,3 hPa 0,0 l/m 2 min 0 min 332 W/m 18,8 km/h (3 Bft) 97,83 %
25.03.2017 08:40 8,1 C 18,9 C 8,3 C 79 % 0 lf 1029,3 hPa 0,0 l/m 2 min 0 min 334 W/m 12,6 km/h (3 Bft) 100,00 %
25.03.2017 08:42 8,2 C 18,9 C 8,3 C 79 % 0 lf 1029,4 hPa 0,0 l/m 2 min 0 min 336 W/m 14,6 km/h (3 Bft) 93,62 %
25.03.2017 08:44 8,4 C 18,3 C 8,9 C 79 % 0 lf 1029,4 hPa 0,0 l/m 2 min 0 min 339 W/m 18,8 km/h (3 Bft) 95,74 %
25.03.2017 08:46 8,6 C 17,8 C 8,9 C 78 % 0 lf 1029,4 hPa 0,0 l/m 2 min 0 min 343 W/m 14,6 km/h (3 Bft) 95,74 %
25.03.2017 08:48 8,7 C 18,3 C 9,4 C 77 % 0 lf 1029,4 hPa 0,0 l/m 2 min 0 min 352 W/m 20,9 km/h (4 Bft) 97,87 %
25.03.2017 08:50 8,9 C 16,7 C 9,4 C 76 % 0 lf 1029,4 hPa 0,0 l/m 2 min 0 min 357 W/m 18,8 km/h (3 Bft) 93,48 %
25.03.2017 08:52 9,1 C 18,3 C 10,0 C 75 % 0 lf 1029,3 hPa 0,0 l/m 2 min 0 min 359 W/m 18,8 km/h (3 Bft) 95,74 %
25.03.2017 08:54 9,2 C 18,9 C 10,0 C 75 % 0 lf 1029,4 hPa 0,0 l/m 2 min 0 min 365 W/m 18,8 km/h (3 Bft) 97,87 %
25.03.2017 08:56 9,3 C 18,3 C 10,0 C 74 % 0 lf 1029,4 hPa 0,0 l/m 2 min 0 min 374 W/m 23,0 km/h (4 Bft) 95,74 %
25.03.2017 08:58 9,5 C 18,9 C 10,6 C 74 % 0 lf 1029,4 hPa 0,0 l/m 2 min 0 min 380 W/m 20,9 km/h (4 Bft) 97,87 %
25.03.2017 09:00 9,6 C 19,4 C 11,1 C 73 % 0 lf 1029,4 hPa 0,0 l/m 2 min 0 min 386 W/m 16,7 km/h (3 Bft) 93,62 %
25.03.2017 09:02 9,7 C 19,4 C 12,2 C 72 % 0 lf 1029,4 hPa 0,0 l/m 2 min 0 min 394 W/m 14,6 km/h (3 Bft) 95,65 %
25.03.2017 09:04 9,9 C 20,0 C 12,8 C 72 % 0 lf 1029,3 hPa 0,0 l/m 2 min 0 min 395 W/m 16,7 km/h (3 Bft) 97,87 %
25.03.2017 09:06 10,0 C 20,0 C 13,3 C 72 % 0 lf 1029,3 hPa 0,0 l/m 2 min 0 min 399 W/m 18,8 km/h (3 Bft) 93,62 %
25.03.2017 09:08 10,2 C 18,3 C 13,3 C 71 % 0 lf 1029,3 hPa 0,0 l/m 2 min 0 min 416 W/m 27,2 km/h (4 Bft) 97,87 %
25.03.2017 09:10 10,3 C 16,7 C 13,9 C 69 % 0 lf 1029,3 hPa 0,0 l/m 2 min 0 min 420 W/m 29,3 km/h (5 Bft) 95,74 %
25.03.2017 09:12 10,4 C 16,7 C 13,9 C 68 % 0 lf 1029,3 hPa 0,0 l/m 2 min 0 min 428 W/m 27,2 km/h (4 Bft) 93,62 %
25.03.2017 09:14 10,6 C 16,7 C 14,4 C 68 % 0 lf 1029,3 hPa 0,0 l/m 2 min 0 min 434 W/m 27,2 km/h (4 Bft) 93,48 %
25.03.2017 09:16 10,7 C 18,3 C 15,0 C 68 % 0 lf 1029,3 hPa 0,0 l/m 2 min 0 min 436 W/m 18,8 km/h (3 Bft) 93,62 %
25.03.2017 09:18 10,8 C 18,9 C 14,4 C 68 % 0 lf 1029,3 hPa 0,0 l/m 2 min 0 min 450 W/m 29,3 km/h (5 Bft) 95,74 %
25.03.2017 09:20 10,8 C 18,9 C 14,4 C 67 % 0 lf 1029,3 hPa 0,0 l/m 2 min 0 min 455 W/m 29,3 km/h (5 Bft) 95,74 %
25.03.2017 09:22 10,9 C 18,9 C 14,4 C 67 % 0 lf 1029,3 hPa 0,0 l/m 2 min 0 min 459 W/m 27,2 km/h (4 Bft) 93,62 %
25.03.2017 09:24 11,0 C 17,8 C 14,4 C 66 % 0 lf 1029,3 hPa 0,0 l/m 2 min 0 min 424 W/m 27,2 km/h (4 Bft) 95,65 %
25.03.2017 09:26 11,1 C 17,8 C 13,9 C 66 % 0 lf 1029,3 hPa 0,0 l/m 2 min 0 min 392 W/m 29,3 km/h (5 Bft) 97,87 %
25.03.2017 09:28 11,1 C 17,8 C 13,9 C 66 % 0 lf 1029,2 hPa 0,0 l/m 2 min 0 min 536 W/m 27,2 km/h (4 Bft) 95,74 %
25.03.2017 09:30 11,2 C 17,2 C 13,9 C 65 % 0 lf 1029,2 hPa 0,0 l/m 2 min 0 min 615 W/m 23,0 km/h (4 Bft) 95,74 %
25.03.2017 09:32 11,2 C 17,2 C 13,9 C 65 % 0 lf 1029,2 hPa 0,0 l/m 2 min 0 min 481 W/m 27,2 km/h (4 Bft) 95,74 %
25.03.2017 09:34 11,3 C 16,7 C 13,9 C 65 % 0 lf 1029,3 hPa 0,0 l/m 2 min 0 min 485 W/m 27,2 km/h (4 Bft) 97,87 %
25.03.2017 09:36 11,3 C 17,2 C 13,9 C 64 % 0 lf 1029,2 hPa 0,0 l/m 2 min 0 min 596 W/m 23,0 km/h (4 Bft) 95,65 %
25.03.2017 09:38 11,4 C 17,8 C 13,9 C 65 % 0 lf 1029,2 hPa 0,0 l/m 2 min 0 min 614 W/m 25,1 km/h (4 Bft) 97,87 %
25.03.2017 09:40 11,4 C 18,3 C 13,3 C 65 % 0 lf 1029,2 hPa 0,0 l/m 2 min 0 min 497 W/m 20,9 km/h (4 Bft) 95,74 %
25.03.2017 09:42 11,5 C 18,9 C 12,8 C 65 % 0 lf 1029,3 hPa 0,0 l/m 2 min 0 min 502 W/m 25,1 km/h (4 Bft) 97,87 %
25.03.2017 09:44 11,6 C 18,9 C 12,2 C 65 % 0 lf 1029,2 hPa 0,0 l/m 2 min 0 min 506 W/m 23,0 km/h (4 Bft) 95,74 %
25.03.2017 09:46 11,6 C 18,9 C 12,2 C 65 % 0 lf 1029,2 hPa 0,0 l/m 2 min 0 min 510 W/m 23,0 km/h (4 Bft) 95,74 %
25.03.2017 09:48 11,7 C 20,0 C 12,2 C 65 % 0 lf 1029,3 hPa 0,0 l/m 2 min 0 min 613 W/m 20,9 km/h (4 Bft) 93,48 %
25.03.2017 09:50 11,7 C 18,3 C 12,8 C 64 % 0 lf 1029,2 hPa 0,0 l/m 2 min 0 min 629 W/m 29,3 km/h (5 Bft) 97,87 %
25.03.2017 09:52 11,7 C 17,2 C 13,3 C 63 % 0 lf 1029,2 hPa 0,0 l/m 2 min 0 min 618 W/m 25,1 km/h (4 Bft) 89,36 %
25.03.2017 09:54 11,8 C 17,8 C 13,9 C 63 % 0 lf 1029,2 hPa 0,0 l/m 2 min 0 min 590 W/m 23,0 km/h (4 Bft) 97,87 %
25.03.2017 09:56 11,8 C 18,9 C 14,4 C 64 % 0 lf 1029,2 hPa 0,0 l/m 2 min 0 min 456 W/m 29,3 km/h (5 Bft) 95,74 %
25.03.2017 09:58 11,9 C 18,3 C 15,0 C 63 % 0 lf 1029,2 hPa 0,0 l/m 2 min 0 min 448 W/m 27,2 km/h (4 Bft) 95,74 %
25.03.2017 10:00 11,9 C 18,9 C 15,0 C 63 % 0 lf 1029,3 hPa 0,0 l/m 2 min 0 min 434 W/m 27,2 km/h (4 Bft) 97,83 %
25.03.2017 10:02 12,0 C 18,9 C 15,0 C 63 % 0 lf 1029,2 hPa 0,0 l/m 2 min 0 min 616 W/m 20,9 km/h (4 Bft) 95,74 %
25.03.2017 10:04 12,1 C 18,3 C 15,6 C 62 % 0 lf 1029,2 hPa 0,0 l/m 2 min 0 min 667 W/m 27,2 km/h (4 Bft) 93,62 %
25.03.2017 10:06 12,1 C 18,9 C 15,6 C 62 % 0 lf 1029,2 hPa 0,0 l/m 2 min 0 min 561 W/m 35,6 km/h (5 Bft) 91,49 %
25.03.2017 10:08 12,2 C 18,9 C 15,6 C 62 % 0 lf 1029,3 hPa 0,0 l/m 2 min 0 min 653 W/m 31,4 km/h (5 Bft) 89,36 %
25.03.2017 10:10 12,2 C 19,4 C 15,6 C 62 % 0 lf 1029,2 hPa 0,0 l/m 2 min 0 min 555 W/m 29,3 km/h (5 Bft) 95,74 %
25.03.2017 10:12 12,2 C 18,3 C 15,6 C 61 % 0 lf 1029,2 hPa 0,0 l/m 2 min 0 min 558 W/m 31,4 km/h (5 Bft) 95,65 %
25.03.2017 10:14 12,3 C 17,8 C 15,6 C 60 % 0 lf 1029,2 hPa 0,0 l/m 2 min 0 min 562 W/m 29,3 km/h (5 Bft) 95,74 %
25.03.2017 10:16 12,3 C 18,3 C 15,6 C 60 % 0 lf 1029,1 hPa 0,0 l/m 2 min 0 min 565 W/m 29,3 km/h (5 Bft) 95,74 %
25.03.2017 10:18 12,3 C 19,4 C 15,6 C 61 % 0 lf 1029,1 hPa 0,0 l/m 2 min 0 min 750 W/m 29,3 km/h (5 Bft) 93,62 %
25.03.2017 10:20 12,4 C 20,6 C 16,1 C 61 % 0 lf 1029,0 hPa 0,0 l/m 2 min 0 min 750 W/m 20,9 km/h (4 Bft) 93,62 %
25.03.2017 10:22 12,4 C 20,0 C 16,7 C 61 % 0 lf 1029,1 hPa 0,0 l/m 2 min 0 min 597 W/m 20,9 km/h (4 Bft) 95,74 %
25.03.2017 10:24 12,5 C 21,1 C 16,1 C 61 % 0 lf 1029,0 hPa 0,0 l/m 2 min 0 min 579 W/m 29,3 km/h (5 Bft) 93,48 %
25.03.2017 10:26 12,6 C 19,4 C 16,1 C 61 % 0 lf 1029,0 hPa 0,0 l/m 2 min 0 min 582 W/m 25,1 km/h (4 Bft) 93,62 %
25.03.2017 10:28 12,6 C 18,3 C 16,7 C 61 % 0 lf 1029,0 hPa 0,0 l/m 2 min 0 min 750 W/m 29,3 km/h (5 Bft) 93,62 %
25.03.2017 10:30 12,7 C 19,4 C 16,7 C 61 % 0 lf 1029,1 hPa 0,0 l/m 2 min 0 min 775 W/m 23,0 km/h (4 Bft) 93,62 %
25.03.2017 10:32 12,8 C 19,4 C 17,2 C 60 % 0 lf 1029,1 hPa 0,0 l/m 2 min 0 min 591 W/m 27,2 km/h (4 Bft) 93,62 %
25.03.2017 10:34 12,8 C 20,6 C 17,2 C 60 % 0 lf 1029,1 hPa 0,0 l/m 2 min 0 min 594 W/m 27,2 km/h (4 Bft) 91,30 %
25.03.2017 10:36 12,9 C 21,1 C 17,8 C 60 % 0 lf 1029,1 hPa 0,0 l/m 2 min 0 min 597 W/m 27,2 km/h (4 Bft) 93,62 %
25.03.2017 10:38 13,1 C 22,2 C 17,8 C 60 % 0 lf 1029,1 hPa 0,0 l/m 2 min 0 min 740 W/m 23,0 km/h (4 Bft) 95,74 %
25.03.2017 10:40 13,1 C 21,1 C 17,8 C 59 % 0 lf 1029,1 hPa 0,0 l/m 2 min 0 min 671 W/m 33,5 km/h (5 Bft) 95,74 %
25.03.2017 10:42 13,2 C 20,0 C 17,8 C 58 % 0 lf 1029,0 hPa 0,0 l/m 2 min 0 min 606 W/m 29,3 km/h (5 Bft) 91,49 %
25.03.2017 10:44 13,3 C 17,8 C 17,2 C 57 % 0 lf 1029,0 hPa 0,0 l/m 2 min 0 min 609 W/m 33,5 km/h (5 Bft) 93,62 %
25.03.2017 10:46 13,3 C 18,3 C 17,8 C 57 % 0 lf 1028,9 hPa 0,0 l/m 2 min 0 min 612 W/m 23,0 km/h (4 Bft) 97,83 %
25.03.2017 10:48 13,3 C 17,8 C 17,2 C 57 % 0 lf 1028,9 hPa 0,0 l/m 2 min 0 min 615 W/m 31,4 km/h (5 Bft) 95,74 %
25.03.2017 10:50 13,3 C 18,9 C 17,8 C 57 % 0 lf 1028,9 hPa 0,0 l/m 2 min 0 min 617 W/m 29,3 km/h (5 Bft) 100,00 %
25.03.2017 10:52 13,4 C 21,1 C 17,8 C 58 % 0 lf 1028,9 hPa 0,0 l/m 2 min 0 min 620 W/m 35,6 km/h (5 Bft) 97,87 %
25.03.2017 10:54 13,4 C 20,6 C 17,8 C 57 % 0 lf 1028,9 hPa 0,0 l/m 2 min 0 min 623 W/m 31,4 km/h (5 Bft) 95,74 %
25.03.2017 10:56 13,5 C 21,1 C 17,2 C 57 % 0 lf 1028,9 hPa 0,0 l/m 2 min 0 min 625 W/m 35,6 km/h (5 Bft) 97,87 %
25.03.2017 10:58 13,6 C 22,2 C 17,8 C 56 % 0 lf 1028,7 hPa 0,0 l/m 2 min 0 min 628 W/m 29,3 km/h (5 Bft) 93,48 %
25.03.2017 11:00 13,6 C 23,3 C 17,8 C 58 % 0 lf 1028,8 hPa 0,0 l/m 2 min 0 min 630 W/m 25,1 km/h (4 Bft) 97,87 %
25.03.2017 11:02 13,7 C 23,3 C 18,3 C 57 % 0 lf 1028,8 hPa 0,0 l/m 2 min 0 min 633 W/m 37,7 km/h (5 Bft) 95,74 %
25.03.2017 11:04 13,8 C 22,2 C 17,8 C 57 % 0 lf 1028,8 hPa 0,0 l/m 2 min 0 min 635 W/m 39,7 km/h (6 Bft) 97,87 %
25.03.2017 11:06 13,9 C 22,2 C 17,8 C 56 % 0 lf 1028,8 hPa 0,0 l/m 2 min 0 min 637 W/m 27,2 km/h (4 Bft) 100,00 %
25.03.2017 11:08 13,9 C 22,2 C 17,8 C 55 % 0 lf 1028,8 hPa 0,0 l/m 2 min 0 min 640 W/m 33,5 km/h (5 Bft) 100,00 %
25.03.2017 11:10 14,1 C 21,1 C 17,8 C 55 % 0 lf 1028,8 hPa 0,0 l/m 2 min 0 min 642 W/m 33,5 km/h (5 Bft) 97,83 %
25.03.2017 11:12 14,1 C 20,0 C 18,3 C 54 % 0 lf 1028,6 hPa 0,0 l/m 2 min 0 min 644 W/m 35,6 km/h (5 Bft) 97,87 %
25.03.2017 11:14 14,2 C 22,2 C 17,8 C 55 % 0 lf 1028,6 hPa 0,0 l/m 2 min 0 min 646 W/m 29,3 km/h (5 Bft) 95,74 %
25.03.2017 11:16 14,2 C 20,0 C 17,2 C 55 % 0 lf 1028,6 hPa 0,0 l/m 2 min 0 min 648 W/m 35,6 km/h (5 Bft) 100,00 %
25.03.2017 11:18 14,2 C 18,9 C 16,7 C 54 % 0 lf 1028,5 hPa 0,0 l/m 2 min 0 min 650 W/m 29,3 km/h (5 Bft) 89,36 %
25.03.2017 11:20 14,2 C 18,3 C 16,1 C 53 % 0 lf 1028,5 hPa 0,0 l/m 2 min 0 min 800 W/m 33,5 km/h (5 Bft) 93,62 %
25.03.2017 11:22 14,2 C 20,0 C 16,1 C 55 % 0 lf 1028,5 hPa 0,0 l/m 2 min 0 min 841 W/m 31,4 km/h (5 Bft) 97,83 %
25.03.2017 11:24 14,2 C 21,7 C 15,6 C 54 % 0 lf 1028,5 hPa 0,0 l/m 2 min 0 min 726 W/m 27,2 km/h (4 Bft) 97,87 %
25.03.2017 11:26 14,2 C 22,2 C 15,0 C 55 % 0 lf 1028,5 hPa 0,0 l/m 2 min 0 min 677 W/m 39,7 km/h (6 Bft) 95,74 %
25.03.2017 11:28 14,3 C 22,8 C 15,0 C 54 % 0 lf 1028,5 hPa 0,0 l/m 2 min 0 min 655 W/m 39,7 km/h (6 Bft) 95,74 %
25.03.2017 11:30 14,4 C 22,2 C 15,0 C 53 % 0 lf 1028,6 hPa 0,0 l/m 2 min 0 min 661 W/m 39,7 km/h (6 Bft) 95,74 %
25.03.2017 11:32 14,5 C 23,3 C 15,6 C 54 % 0 lf 1028,4 hPa 0,0 l/m 2 min 0 min 647 W/m 25,1 km/h (4 Bft) 93,62 %
25.03.2017 11:34 14,6 C 23,3 C 15,6 C 54 % 0 lf 1028,4 hPa 0,0 l/m 2 min 0 min 648 W/m 43,9 km/h (6 Bft) 91,30 %
25.03.2017 11:36 14,6 C 22,2 C 15,0 C 52 % 0 lf 1028,3 hPa 0,0 l/m 2 min 0 min 626 W/m 33,5 km/h (5 Bft) 95,74 %
25.03.2017 11:38 14,6 C 22,8 C 15,0 C 53 % 0 lf 1028,1 hPa 0,0 l/m 2 min 0 min 570 W/m 29,3 km/h (5 Bft) 97,87 %
25.03.2017 11:40 14,7 C 20,0 C 15,0 C 52 % 0 lf 1028,2 hPa 0,0 l/m 2 min 0 min 594 W/m 46,0 km/h (6 Bft) 100,00 %
25.03.2017 11:42 14,7 C 20,6 C 15,0 C 52 % 0 lf 1028,2 hPa 0,0 l/m 2 min 0 min 656 W/m 46,0 km/h (6 Bft) 95,74 %
25.03.2017 11:44 14,7 C 19,4 C 15,0 C 50 % 0 lf 1028,2 hPa 0,0 l/m 2 min 0 min 616 W/m 37,7 km/h (5 Bft) 95,74 %
25.03.2017 11:46 14,7 C 19,4 C 15,0 C 50 % 0 lf 1028,1 hPa 0,0 l/m 2 min 0 min 594 W/m 33,5 km/h (5 Bft) 97,83 %
25.03.2017 11:48 14,7 C 18,9 C 15,0 C 49 % 0 lf 1028,1 hPa 0,0 l/m 2 min 0 min 645 W/m 33,5 km/h (5 Bft) 97,87 %
25.03.2017 11:50 14,7 C 19,4 C 15,6 C 50 % 0 lf 1028,1 hPa 0,0 l/m 2 min 0 min 648 W/m 37,7 km/h (5 Bft) 95,74 %
25.03.2017 11:52 14,7 C 21,1 C 15,6 C 51 % 0 lf 1028,1 hPa 0,0 l/m 2 min 0 min 645 W/m 27,2 km/h (4 Bft) 95,74 %
25.03.2017 11:54 14,8 C 20,6 C 15,0 C 50 % 0 lf 1028,1 hPa 0,0 l/m 2 min 0 min 625 W/m 29,3 km/h (5 Bft) 97,87 %
25.03.2017 11:56 14,8 C 20,0 C 15,0 C 49 % 0 lf 1028,0 hPa 0,0 l/m 2 min 0 min 629 W/m 41,8 km/h (6 Bft) 95,74 %
25.03.2017 11:58 14,8 C 18,3 C 14,4 C 48 % 0 lf 1028,0 hPa 0,0 l/m 2 min 0 min 611 W/m 41,8 km/h (6 Bft) 95,65 %
25.03.2017 12:00 14,8 C 19,4 C 14,4 C 49 % 0 lf 1028,0 hPa 0,0 l/m 2 min 0 min 605 W/m 35,6 km/h (5 Bft) 95,74 %
25.03.2017 12:02 14,8 C 19,4 C 14,4 C 48 % 0 lf 1028,0 hPa 0,0 l/m 2 min 0 min 597 W/m 35,6 km/h (5 Bft) 91,49 %
25.03.2017 12:04 14,8 C 21,1 C 14,4 C 49 % 0 lf 1028,0 hPa 0,0 l/m 2 min 0 min 621 W/m 27,2 km/h (4 Bft) 97,87 %
25.03.2017 12:06 14,9 C 22,2 C 14,4 C 50 % 0 lf 1027,9 hPa 0,0 l/m 2 min 0 min 643 W/m 35,6 km/h (5 Bft) 97,87 %
25.03.2017 12:08 15,0 C 22,8 C 14,4 C 50 % 0 lf 1027,9 hPa 0,0 l/m 2 min 0 min 645 W/m 35,6 km/h (5 Bft) 97,83 %
25.03.2017 12:10 15,1 C 22,8 C 14,4 C 49 % 0 lf 1027,8 hPa 0,0 l/m 2 min 0 min 664 W/m 33,5 km/h (5 Bft) 93,62 %
25.03.2017 12:12 15,2 C 22,8 C 14,4 C 49 % 0 lf 1027,7 hPa 0,0 l/m 2 min 0 min 660 W/m 35,6 km/h (5 Bft) 97,87 %
25.03.2017 12:14 15,2 C 23,3 C 14,4 C 49 % 0 lf 1027,7 hPa 0,0 l/m 2 min 0 min 661 W/m 33,5 km/h (5 Bft) 95,74 %
25.03.2017 12:16 15,3 C 23,3 C 14,4 C 49 % 0 lf 1027,7 hPa 0,0 l/m 2 min 0 min 666 W/m 37,7 km/h (5 Bft) 95,74 %
25.03.2017 12:18 15,4 C 21,1 C 14,4 C 47 % 0 lf 1027,7 hPa 0,0 l/m 2 min 0 min 622 W/m 31,4 km/h (5 Bft) 97,87 %
25.03.2017 12:20 15,4 C 20,0 C 14,4 C 46 % 0 lf 1027,7 hPa 0,0 l/m 2 min 0 min 620 W/m 39,7 km/h (6 Bft) 97,83 %
25.03.2017 12:22 15,4 C 21,7 C 14,4 C 47 % 0 lf 1027,7 hPa 0,0 l/m 2 min 0 min 612 W/m 37,7 km/h (5 Bft) 97,87 %
25.03.2017 12:24 15,5 C 21,1 C 14,4 C 47 % 0 lf 1027,7 hPa 0,0 l/m 2 min 0 min 619 W/m 33,5 km/h (5 Bft) 95,74 %
25.03.2017 12:26 15,5 C 21,1 C 14,4 C 46 % 0 lf 1027,7 hPa 0,0 l/m 2 min 0 min 542 W/m 43,9 km/h (6 Bft) 97,87 %
25.03.2017 12:28 15,5 C 21,7 C 14,4 C 46 % 0 lf 1027,6 hPa 0,0 l/m 2 min 0 min 618 W/m 31,4 km/h (5 Bft) 97,87 %
25.03.2017 12:30 15,6 C 21,1 C 14,4 C 46 % 0 lf 1027,6 hPa 0,0 l/m 2 min 0 min 550 W/m 31,4 km/h (5 Bft) 95,74 %
25.03.2017 12:32 15,6 C 22,2 C 14,4 C 46 % 0 lf 1027,6 hPa 0,0 l/m 2 min 0 min 526 W/m 27,2 km/h (4 Bft) 95,65 %
25.03.2017 12:34 15,6 C 20,6 C 14,4 C 46 % 0 lf 1027,6 hPa 0,0 l/m 2 min 0 min 566 W/m 31,4 km/h (5 Bft) 93,62 %
25.03.2017 12:36 15,6 C 20,6 C 13,9 C 46 % 0 lf 1027,6 hPa 0,0 l/m 2 min 0 min 573 W/m 27,2 km/h (4 Bft) 95,74 %
25.03.2017 12:38 15,7 C 20,6 C 13,9 C 46 % 0 lf 1027,5 hPa 0,0 l/m 2 min 0 min 532 W/m 33,5 km/h (5 Bft) 95,74 %
25.03.2017 12:40 15,7 C 20,6 C 13,9 C 46 % 0 lf 1027,5 hPa 0,0 l/m 2 min 0 min 519 W/m 27,2 km/h (4 Bft) 89,36 %
25.03.2017 12:42 15,7 C 21,1 C 13,9 C 46 % 0 lf 1027,4 hPa 0,0 l/m 2 min 0 min 553 W/m 31,4 km/h (5 Bft) 93,62 %
25.03.2017 12:44 15,6 C 19,4 C 13,9 C 44 % 0 lf 1027,4 hPa 0,0 l/m 2 min 0 min 552 W/m 43,9 km/h (6 Bft) 93,48 %
25.03.2017 12:46 15,6 C 20,0 C 13,9 C 46 % 0 lf 1027,4 hPa 0,0 l/m 2 min 0 min 540 W/m 37,7 km/h (5 Bft) 93,62 %
25.03.2017 12:48 15,6 C 21,7 C 13,9 C 46 % 0 lf 1027,4 hPa 0,0 l/m 2 min 0 min 630 W/m 33,5 km/h (5 Bft) 93,62 %
25.03.2017 12:50 15,7 C 22,2 C 14,4 C 47 % 0 lf 1027,3 hPa 0,0 l/m 2 min 0 min 662 W/m 23,0 km/h (4 Bft) 91,49 %
25.03.2017 12:52 15,7 C 22,8 C 13,9 C 46 % 0 lf 1027,3 hPa 0,0 l/m 2 min 0 min 565 W/m 35,6 km/h (5 Bft) 93,62 %
25.03.2017 12:54 15,7 C 21,1 C 13,9 C 44 % 0 lf 1027,3 hPa 0,0 l/m 2 min 0 min 576 W/m 43,9 km/h (6 Bft) 93,62 %
25.03.2017 12:56 15,8 C 21,1 C 14,4 C 45 % 0 lf 1027,2 hPa 0,0 l/m 2 min 0 min 603 W/m 33,5 km/h (5 Bft) 93,48 %
25.03.2017 12:58 15,8 C 21,7 C 14,4 C 45 % 0 lf 1027,1 hPa 0,0 l/m 2 min 0 min 576 W/m 29,3 km/h (5 Bft) 91,49 %
25.03.2017 13:00 15,8 C 21,7 C 14,4 C 45 % 0 lf 1027,1 hPa 0,0 l/m 2 min 0 min 585 W/m 25,1 km/h (4 Bft) 89,36 %
25.03.2017 13:02 15,8 C 21,7 C 14,4 C 45 % 0 lf 1027,1 hPa 0,0 l/m 2 min 0 min 641 W/m 23,0 km/h (4 Bft) 91,49 %
25.03.2017 13:04 15,9 C 22,2 C 14,4 C 45 % 0 lf 1027,1 hPa 0,0 l/m 2 min 0 min 684 W/m 29,3 km/h (5 Bft) 93,62 %
25.03.2017 13:06 16,0 C 22,8 C 15,0 C 46 % 0 lf 1027,1 hPa 0,0 l/m 2 min 0 min 690 W/m 27,2 km/h (4 Bft) 95,74 %
25.03.2017 13:08 16,1 C 22,8 C 15,0 C 46 % 0 lf 1027,0 hPa 0,0 l/m 2 min 0 min 679 W/m 31,4 km/h (5 Bft) 93,48 %
25.03.2017 13:10 16,2 C 23,9 C 15,0 C 46 % 0 lf 1027,0 hPa 0,0 l/m 2 min 0 min 672 W/m 31,4 km/h (5 Bft) 97,87 %
25.03.2017 13:12 16,2 C 23,9 C 14,4 C 45 % 0 lf 1027,0 hPa 0,0 l/m 2 min 0 min 660 W/m 29,3 km/h (5 Bft) 95,74 %
25.03.2017 13:14 16,3 C 23,9 C 14,4 C 44 % 0 lf 1027,0 hPa 0,0 l/m 2 min 0 min 666 W/m 37,7 km/h (5 Bft) 97,87 %
25.03.2017 13:16 16,3 C 23,9 C 14,4 C 45 % 0 lf 1027,0 hPa 0,0 l/m 2 min 0 min 671 W/m 50,2 km/h (7 Bft) 97,87 %
25.03.2017 13:18 16,4 C 25,0 C 14,4 C 45 % 0 lf 1027,0 hPa 0,0 l/m 2 min 0 min 684 W/m 27,2 km/h (4 Bft) 93,48 %
25.03.2017 13:20 16,5 C 24,4 C 14,4 C 44 % 0 lf 1026,8 hPa 0,0 l/m 2 min 0 min 683 W/m 29,3 km/h (5 Bft) 89,36 %
25.03.2017 13:22 16,6 C 23,9 C 15,0 C 44 % 0 lf 1026,8 hPa 0,0 l/m 2 min 0 min 682 W/m 31,4 km/h (5 Bft) 95,74 %
25.03.2017 13:24 16,6 C 22,8 C 15,0 C 43 % 0 lf 1026,9 hPa 0,0 l/m 2 min 0 min 681 W/m 35,6 km/h (5 Bft) 97,87 %
25.03.2017 13:26 16,6 C 23,3 C 15,0 C 44 % 0 lf 1026,7 hPa 0,0 l/m 2 min 0 min 680 W/m 35,6 km/h (5 Bft) 93,62 %
25.03.2017 13:28 16,7 C 23,3 C 15,0 C 43 % 0 lf 1026,7 hPa 0,0 l/m 2 min 0 min 678 W/m 33,5 km/h (5 Bft) 100,00 %
25.03.2017 13:30 16,7 C 22,8 C 15,0 C 43 % 0 lf 1026,6 hPa 0,0 l/m 2 min 0 min 677 W/m 31,4 km/h (5 Bft) 95,65 %
25.03.2017 13:32 16,8 C 22,8 C 15,0 C 43 % 0 lf 1026,7 hPa 0,0 l/m 2 min 0 min 676 W/m 35,6 km/h (5 Bft) 95,74 %
25.03.2017 13:34 16,8 C 22,8 C 15,0 C 42 % 0 lf 1026,6 hPa 0,0 l/m 2 min 0 min 675 W/m 29,3 km/h (5 Bft) 100,00 %
25.03.2017 13:36 16,8 C 23,9 C 15,0 C 44 % 0 lf 1026,6 hPa 0,0 l/m 2 min 0 min 673 W/m 37,7 km/h (5 Bft) 95,74 %
25.03.2017 13:38 16,9 C 25,6 C 15,0 C 44 % 0 lf 1026,5 hPa 0,0 l/m 2 min 0 min 672 W/m 29,3 km/h (5 Bft) 100,00 %
25.03.2017 13:40 17,0 C 25,6 C 15,0 C 44 % 0 lf 1026,4 hPa 0,0 l/m 2 min 0 min 670 W/m 31,4 km/h (5 Bft) 97,87 %
25.03.2017 13:42 17,1 C 26,1 C 15,0 C 44 % 0 lf 1026,4 hPa 0,0 l/m 2 min 0 min 669 W/m 31,4 km/h (5 Bft) 95,65 %
25.03.2017 13:44 17,2 C 26,1 C 15,6 C 44 % 0 lf 1026,4 hPa 0,0 l/m 2 min 0 min 667 W/m 23,0 km/h (4 Bft) 97,87 %
25.03.2017 13:46 17,2 C 22,8 C 15,6 C 41 % 0 lf 1026,3 hPa 0,0 l/m 2 min 0 min 666 W/m 37,7 km/h (5 Bft) 100,00 %
25.03.2017 13:48 17,2 C 22,2 C 15,0 C 41 % 0 lf 1026,2 hPa 0,0 l/m 2 min 0 min 851 W/m 37,7 km/h (5 Bft) 95,74 %
25.03.2017 13:50 17,2 C 22,8 C 15,6 C 41 % 0 lf 1026,2 hPa 0,0 l/m 2 min 0 min 834 W/m 39,7 km/h (6 Bft) 97,87 %
25.03.2017 13:52 17,2 C 23,3 C 15,0 C 42 % 0 lf 1026,2 hPa 0,0 l/m 2 min 0 min 843 W/m 41,8 km/h (6 Bft) 97,87 %
25.03.2017 13:54 17,1 C 21,7 C 15,0 C 40 % 0 lf 1026,2 hPa 0,0 l/m 2 min 0 min 838 W/m 35,6 km/h (5 Bft) 100,00 %
25.03.2017 13:56 17,1 C 23,9 C 15,6 C 42 % 0 lf 1026,2 hPa 0,0 l/m 2 min 0 min 854 W/m 33,5 km/h (5 Bft) 100,00 %
25.03.2017 13:58 17,1 C 23,9 C 15,6 C 42 % 0 lf 1026,0 hPa 0,0 l/m 2 min 0 min 861 W/m 37,7 km/h (5 Bft) 95,74 %
25.03.2017 14:00 17,1 C 24,4 C 15,0 C 41 % 0 lf 1026,0 hPa 0,0 l/m 2 min 0 min 839 W/m 27,2 km/h (4 Bft) 95,74 %
25.03.2017 14:02 17,1 C 24,4 C 15,0 C 42 % 0 lf 1026,0 hPa 0,0 l/m 2 min 0 min 817 W/m 37,7 km/h (5 Bft) 95,74 %
25.03.2017 14:04 17,0 C 23,9 C 15,0 C 41 % 0 lf 1025,9 hPa 0,0 l/m 2 min 0 min 834 W/m 35,6 km/h (5 Bft) 95,74 %
25.03.2017 14:06 16,9 C 23,9 C 15,0 C 42 % 0 lf 1026,0 hPa 0,0 l/m 2 min 0 min 839 W/m 31,4 km/h (5 Bft) 97,83 %
25.03.2017 14:08 16,9 C 24,4 C 15,0 C 40 % 0 lf 1025,9 hPa 0,0 l/m 2 min 0 min 842 W/m 46,0 km/h (6 Bft) 97,87 %
25.03.2017 14:10 16,9 C 23,9 C 16,1 C 40 % 0 lf 1026,0 hPa 0,0 l/m 2 min 0 min 691 W/m 46,0 km/h (6 Bft) 97,87 %
25.03.2017 14:12 16,9 C 23,9 C 17,2 C 40 % 0 lf 1025,8 hPa 0,0 l/m 2 min 0 min 649 W/m 35,6 km/h (5 Bft) 100,00 %
25.03.2017 14:14 16,9 C 23,9 C 17,2 C 41 % 0 lf 1025,7 hPa 0,0 l/m 2 min 0 min 586 W/m 35,6 km/h (5 Bft) 97,87 %
25.03.2017 14:16 16,9 C 25,0 C 17,2 C 41 % 0 lf 1025,7 hPa 0,0 l/m 2 min 0 min 613 W/m 23,0 km/h (4 Bft) 91,49 %
25.03.2017 14:18 17,0 C 24,4 C 18,9 C 41 % 0 lf 1025,7 hPa 0,0 l/m 2 min 0 min 646 W/m 39,7 km/h (6 Bft) 97,83 %
25.03.2017 14:20 17,0 C 23,9 C 19,4 C 41 % 0 lf 1025,7 hPa 0,0 l/m 2 min 0 min 646 W/m 29,3 km/h (5 Bft) 95,74 %
25.03.2017 14:22 17,1 C 22,8 C 19,4 C 39 % 0 lf 1025,7 hPa 0,0 l/m 2 min 0 min 621 W/m 29,3 km/h (5 Bft) 95,74 %
25.03.2017 14:24 17,1 C 23,9 C 18,9 C 40 % 0 lf 1025,7 hPa 0,0 l/m 2 min 0 min 606 W/m 31,4 km/h (5 Bft) 97,87 %
25.03.2017 14:26 17,2 C 24,4 C 18,3 C 40 % 0 lf 1025,7 hPa 0,0 l/m 2 min 0 min 629 W/m 29,3 km/h (5 Bft) 97,87 %
25.03.2017 14:28 17,2 C 25,0 C 18,3 C 40 % 0 lf 1025,7 hPa 0,0 l/m 2 min 0 min 622 W/m 27,2 km/h (4 Bft) 95,74 %
25.03.2017 14:30 17,3 C 22,8 C 17,8 C 41 % 0 lf 1025,7 hPa 0,0 l/m 2 min 0 min 555 W/m 37,7 km/h (5 Bft) 95,65 %
25.03.2017 14:32 17,3 C 21,7 C 16,7 C 40 % 0 lf 1025,6 hPa 0,0 l/m 2 min 0 min 384 W/m 35,6 km/h (5 Bft) 95,74 %
25.03.2017 14:34 17,2 C 22,8 C 16,7 C 41 % 0 lf 1025,6 hPa 0,0 l/m 2 min 0 min 495 W/m 27,2 km/h (4 Bft) 95,74 %
25.03.2017 14:36 17,2 C 22,8 C 16,7 C 40 % 0 lf 1025,6 hPa 0,0 l/m 2 min 0 min 550 W/m 31,4 km/h (5 Bft) 93,62 %
25.03.2017 14:38 17,2 C 22,2 C 16,7 C 40 % 0 lf 1025,6 hPa 0,0 l/m 2 min 0 min 484 W/m 31,4 km/h (5 Bft) 97,87 %
25.03.2017 14:40 17,1 C 22,2 C 15,6 C 40 % 0 lf 1025,6 hPa 0,0 l/m 2 min 0 min 465 W/m 29,3 km/h (5 Bft) 93,48 %
25.03.2017 14:42 17,0 C 22,2 C 15,0 C 41 % 0 lf 1025,5 hPa 0,0 l/m 2 min 0 min 405 W/m 29,3 km/h (5 Bft) 100,00 %
25.03.2017 14:44 16,9 C 22,2 C 15,0 C 41 % 0 lf 1025,5 hPa 0,0 l/m 2 min 0 min 481 W/m 31,4 km/h (5 Bft) 97,87 %
25.03.2017 14:46 16,9 C 23,3 C 15,6 C 42 % 0 lf 1025,4 hPa 0,0 l/m 2 min 0 min 563 W/m 27,2 km/h (4 Bft) 97,87 %
25.03.2017 14:48 16,8 C 23,3 C 15,0 C 42 % 0 lf 1025,4 hPa 0,0 l/m 2 min 0 min 568 W/m 31,4 km/h (5 Bft) 100,00 %
25.03.2017 14:50 16,7 C 22,8 C 15,0 C 42 % 0 lf 1025,4 hPa 0,0 l/m 2 min 0 min 569 W/m 31,4 km/h (5 Bft) 97,87 %
25.03.2017 14:52 16,7 C 22,8 C 15,0 C 42 % 0 lf 1025,3 hPa 0,0 l/m 2 min 0 min 561 W/m 39,7 km/h (6 Bft) 100,00 %
25.03.2017 14:54 16,7 C 22,8 C 14,4 C 42 % 0 lf 1025,3 hPa 0,0 l/m 2 min 0 min 556 W/m 33,5 km/h (5 Bft) 100,00 %
25.03.2017 14:56 16,6 C 23,3 C 15,0 C 42 % 0 lf 1025,3 hPa 0,0 l/m 2 min 0 min 547 W/m 31,4 km/h (5 Bft) 100,00 %
25.03.2017 14:58 16,6 C 23,3 C 14,4 C 42 % 0 lf 1025,2 hPa 0,0 l/m 2 min 0 min 542 W/m 37,7 km/h (5 Bft) 97,87 %
25.03.2017 15:00 16,6 C 23,3 C 15,0 C 42 % 0 lf 1025,2 hPa 0,0 l/m 2 min 0 min 541 W/m 50,2 km/h (7 Bft) 100,00 %
25.03.2017 15:02 16,7 C 22,8 C 15,0 C 42 % 0 lf 1025,2 hPa 0,0 l/m 2 min 0 min 538 W/m 43,9 km/h (6 Bft) 100,00 %
25.03.2017 15:04 16,7 C 23,3 C 15,0 C 43 % 0 lf 1025,2 hPa 0,0 l/m 2 min 0 min 536 W/m 31,4 km/h (5 Bft) 97,83 %
25.03.2017 15:06 16,7 C 23,3 C 15,0 C 43 % 0 lf 1025,1 hPa 0,0 l/m 2 min 0 min 532 W/m 35,6 km/h (5 Bft) 95,74 %
25.03.2017 15:08 16,7 C 23,3 C 14,4 C 42 % 0 lf 1025,1 hPa 0,0 l/m 2 min 0 min 530 W/m 33,5 km/h (5 Bft) 93,62 %
25.03.2017 15:10 16,7 C 22,8 C 14,4 C 41 % 0 lf 1025,0 hPa 0,0 l/m 2 min 0 min 524 W/m 33,5 km/h (5 Bft) 95,74 %
25.03.2017 15:12 16,7 C 23,3 C 14,4 C 42 % 0 lf 1025,0 hPa 0,0 l/m 2 min 0 min 518 W/m 31,4 km/h (5 Bft) 95,74 %
25.03.2017 15:14 16,7 C 23,9 C 14,4 C 42 % 0 lf 1025,0 hPa 0,0 l/m 2 min 0 min 515 W/m 27,2 km/h (4 Bft) 95,74 %
25.03.2017 15:16 16,7 C 23,3 C 14,4 C 42 % 0 lf 1024,9 hPa 0,0 l/m 2 min 0 min 511 W/m 35,6 km/h (5 Bft) 95,65 %
25.03.2017 15:18 16,7 C 22,8 C 15,0 C 41 % 0 lf 1024,9 hPa 0,0 l/m 2 min 0 min 504 W/m 43,9 km/h (6 Bft) 100,00 %
25.03.2017 15:20 16,7 C 23,3 C 14,4 C 41 % 0 lf 1024,9 hPa 0,0 l/m 2 min 0 min 498 W/m 37,7 km/h (5 Bft) 95,74 %
25.03.2017 15:22 16,7 C 22,2 C 14,4 C 41 % 0 lf 1024,9 hPa 0,0 l/m 2 min 0 min 494 W/m 37,7 km/h (5 Bft) 91,49 %
25.03.2017 15:24 16,7 C 22,2 C 14,4 C 40 % 0 lf 1024,9 hPa 0,0 l/m 2 min 0 min 486 W/m 39,7 km/h (6 Bft) 93,62 %
25.03.2017 15:26 16,7 C 22,2 C 14,4 C 40 % 0 lf 1024,9 hPa 0,0 l/m 2 min 0 min 482 W/m 33,5 km/h (5 Bft) 93,62 %
25.03.2017 15:28 16,7 C 21,7 C 14,4 C 39 % 0 lf 1024,8 hPa 0,0 l/m 2 min 0 min 482 W/m 39,7 km/h (6 Bft) 93,48 %
25.03.2017 15:30 16,7 C 22,8 C 14,4 C 40 % 0 lf 1024,8 hPa 0,0 l/m 2 min 0 min 476 W/m 25,1 km/h (4 Bft) 91,49 %
25.03.2017 15:32 16,8 C 22,8 C 14,4 C 40 % 0 lf 1024,8 hPa 0,0 l/m 2 min 0 min 470 W/m 35,6 km/h (5 Bft) 93,62 %
25.03.2017 15:34 16,7 C 22,8 C 14,4 C 40 % 0 lf 1024,8 hPa 0,0 l/m 2 min 0 min 468 W/m 29,3 km/h (5 Bft) 93,62 %
25.03.2017 15:36 16,7 C 22,2 C 14,4 C 39 % 0 lf 1024,7 hPa 0,0 l/m 2 min 0 min 464 W/m 35,6 km/h (5 Bft) 91,49 %
25.03.2017 15:38 16,7 C 22,2 C 14,4 C 39 % 0 lf 1024,7 hPa 0,0 l/m 2 min 0 min 461 W/m 41,8 km/h (6 Bft) 91,49 %
25.03.2017 15:40 16,7 C 22,8 C 14,4 C 40 % 0 lf 1024,7 hPa 0,0 l/m 2 min 0 min 456 W/m 20,9 km/h (4 Bft) 93,48 %
25.03.2017 15:42 16,7 C 22,8 C 15,0 C 40 % 0 lf 1024,7 hPa 0,0 l/m 2 min 0 min 451 W/m 29,3 km/h (5 Bft) 93,62 %
25.03.2017 15:44 16,8 C 23,3 C 14,4 C 40 % 0 lf 1024,6 hPa 0,0 l/m 2 min 0 min 446 W/m 29,3 km/h (5 Bft) 95,74 %
25.03.2017 15:46 16,8 C 23,3 C 14,4 C 40 % 0 lf 1024,6 hPa 0,0 l/m 2 min 0 min 442 W/m 35,6 km/h (5 Bft) 91,49 %
25.03.2017 15:48 16,8 C 22,2 C 14,4 C 39 % 0 lf 1024,5 hPa 0,0 l/m 2 min 0 min 440 W/m 43,9 km/h (6 Bft) 91,49 %
25.03.2017 15:50 16,9 C 22,8 C 14,4 C 39 % 0 lf 1024,5 hPa 0,0 l/m 2 min 0 min 435 W/m 33,5 km/h (5 Bft) 89,36 %
25.03.2017 15:52 16,9 C 22,2 C 14,4 C 39 % 0 lf 1024,5 hPa 0,0 l/m 2 min 0 min 429 W/m 39,7 km/h (6 Bft) 93,48 %
25.03.2017 15:54 16,8 C 22,2 C 14,4 C 38 % 0 lf 1024,5 hPa 0,0 l/m 2 min 0 min 425 W/m 41,8 km/h (6 Bft) 93,62 %
25.03.2017 15:56 16,8 C 22,2 C 14,4 C 38 % 0 lf 1024,6 hPa 0,0 l/m 2 min 0 min 421 W/m 31,4 km/h (5 Bft) 87,23 %
25.03.2017 15:58 16,8 C 22,2 C 14,4 C 39 % 0 lf 1024,6 hPa 0,0 l/m 2 min 0 min 416 W/m 39,7 km/h (6 Bft) 95,74 %
25.03.2017 16:00 16,8 C 22,2 C 14,4 C 39 % 0 lf 1024,6 hPa 0,0 l/m 2 min 0 min 411 W/m 27,2 km/h (4 Bft) 95,74 %
25.03.2017 16:02 16,8 C 22,2 C 14,4 C 39 % 0 lf 1024,5 hPa 0,0 l/m 2 min 0 min 408 W/m 25,1 km/h (4 Bft) 93,62 %
25.03.2017 16:04 16,8 C 22,2 C 14,4 C 39 % 0 lf 1024,6 hPa 0,0 l/m 2 min 0 min 404 W/m 35,6 km/h (5 Bft) 89,13 %
25.03.2017 16:06 16,8 C 22,8 C 14,4 C 40 % 0 lf 1024,6 hPa 0,0 l/m 2 min 0 min 397 W/m 33,5 km/h (5 Bft) 93,62 %
25.03.2017 16:08 16,8 C 22,8 C 14,4 C 40 % 0 lf 1024,6 hPa 0,0 l/m 2 min 0 min 392 W/m 23,0 km/h (4 Bft) 95,74 %
25.03.2017 16:10 16,8 C 22,8 C 14,4 C 40 % 0 lf 1024,5 hPa 0,0 l/m 2 min 0 min 387 W/m 37,7 km/h (5 Bft) 95,74 %
25.03.2017 16:12 16,8 C 21,7 C 14,4 C 40 % 0 lf 1024,4 hPa 0,0 l/m 2 min 0 min 381 W/m 33,5 km/h (5 Bft) 93,62 %
25.03.2017 16:14 16,8 C 22,2 C 14,4 C 40 % 0 lf 1024,5 hPa 0,0 l/m 2 min 0 min 376 W/m 35,6 km/h (5 Bft) 97,83 %
25.03.2017 16:16 16,8 C 21,7 C 14,4 C 40 % 0 lf 1024,5 hPa 0,0 l/m 2 min 0 min 371 W/m 31,4 km/h (5 Bft) 95,74 %
25.03.2017 16:18 16,8 C 20,0 C 14,4 C 38 % 0 lf 1024,4 hPa 0,0 l/m 2 min 0 min 367 W/m 46,0 km/h (6 Bft) 97,87 %
25.03.2017 16:20 16,8 C 21,1 C 13,9 C 38 % 0 lf 1024,3 hPa 0,0 l/m 2 min 0 min 365 W/m 33,5 km/h (5 Bft) 95,74 %
25.03.2017 16:22 16,7 C 21,1 C 13,9 C 39 % 0 lf 1024,4 hPa 0,0 l/m 2 min 0 min 358 W/m 43,9 km/h (6 Bft) 100,00 %
25.03.2017 16:24 16,7 C 20,6 C 13,9 C 39 % 0 lf 1024,3 hPa 0,0 l/m 2 min 0 min 340 W/m 43,9 km/h (6 Bft) 97,87 %
25.03.2017 16:26 16,7 C 20,0 C 13,9 C 39 % 0 lf 1024,3 hPa 0,0 l/m 2 min 0 min 260 W/m 41,8 km/h (6 Bft) 95,65 %
25.03.2017 16:28 16,6 C 20,0 C 13,9 C 39 % 0 lf 1024,2 hPa 0,0 l/m 2 min 0 min 303 W/m 35,6 km/h (5 Bft) 97,87 %
25.03.2017 16:30 16,6 C 20,6 C 13,9 C 39 % 0 lf 1024,2 hPa 0,0 l/m 2 min 0 min 325 W/m 33,5 km/h (5 Bft) 93,62 %
25.03.2017 16:32 16,6 C 21,1 C 13,9 C 40 % 0 lf 1024,2 hPa 0,0 l/m 2 min 0 min 327 W/m 31,4 km/h (5 Bft) 95,74 %
25.03.2017 16:34 16,5 C 21,1 C 13,9 C 40 % 0 lf 1024,1 hPa 0,0 l/m 2 min 0 min 319 W/m 27,2 km/h (4 Bft) 97,87 %
25.03.2017 16:36 16,5 C 21,1 C 13,9 C 40 % 0 lf 1024,0 hPa 0,0 l/m 2 min 0 min 312 W/m 33,5 km/h (5 Bft) 95,74 %
25.03.2017 16:38 16,4 C 21,1 C 13,9 C 40 % 0 lf 1024,1 hPa 0,0 l/m 2 min 0 min 291 W/m 27,2 km/h (4 Bft) 97,83 %
25.03.2017 16:40 16,5 C 21,7 C 13,9 C 41 % 0 lf 1024,0 hPa 0,0 l/m 2 min 0 min 297 W/m 20,9 km/h (4 Bft) 93,62 %
25.03.2017 16:42 16,5 C 21,7 C 13,9 C 40 % 0 lf 1024,0 hPa 0,0 l/m 2 min 0 min 295 W/m 25,1 km/h (4 Bft) 93,62 %
25.03.2017 16:44 16,5 C 20,6 C 13,9 C 40 % 0 lf 1024,0 hPa 0,0 l/m 2 min 0 min 294 W/m 50,2 km/h (7 Bft) 97,87 %
25.03.2017 16:46 16,5 C 20,0 C 13,3 C 40 % 0 lf 1024,0 hPa 0,0 l/m 2 min 0 min 271 W/m 25,1 km/h (4 Bft) 95,74 %
25.03.2017 16:48 16,4 C 20,0 C 13,3 C 40 % 0 lf 1023,9 hPa 0,0 l/m 2 min 0 min 245 W/m 31,4 km/h (5 Bft) 93,62 %
25.03.2017 16:50 16,4 C 20,0 C 13,3 C 40 % 0 lf 1024,0 hPa 0,0 l/m 2 min 0 min 241 W/m 27,2 km/h (4 Bft) 97,83 %
25.03.2017 16:52 16,4 C 19,4 C 13,3 C 40 % 0 lf 1023,9 hPa 0,0 l/m 2 min 0 min 255 W/m 33,5 km/h (5 Bft) 97,87 %
25.03.2017 16:54 16,3 C 19,4 C 13,3 C 40 % 0 lf 1023,9 hPa 0,0 l/m 2 min 0 min 257 W/m 35,6 km/h (5 Bft) 93,62 %
25.03.2017 16:56 16,3 C 18,9 C 13,3 C 40 % 0 lf 1023,8 hPa 0,0 l/m 2 min 0 min 253 W/m 39,7 km/h (6 Bft) 95,74 %
25.03.2017 16:58 16,3 C 19,4 C 13,3 C 40 % 0 lf 1023,8 hPa 0,0 l/m 2 min 0 min 247 W/m 31,4 km/h (5 Bft) 95,74 %
25.03.2017 17:00 16,2 C 19,4 C 13,3 C 40 % 0 lf 1023,9 hPa 0,0 l/m 2 min 0 min 241 W/m 29,3 km/h (5 Bft) 97,87 %
25.03.2017 17:02 16,2 C 20,0 C 13,3 C 40 % 0 lf 1023,9 hPa 0,0 l/m 2 min 0 min 237 W/m 35,6 km/h (5 Bft) 93,48 %
25.03.2017 17:04 16,2 C 20,0 C 12,8 C 40 % 0 lf 1023,9 hPa 0,0 l/m 2 min 0 min 231 W/m 33,5 km/h (5 Bft) 95,74 %
25.03.2017 17:06 16,2 C 19,4 C 13,3 C 40 % 0 lf 1023,8 hPa 0,0 l/m 2 min 0 min 228 W/m 39,7 km/h (6 Bft) 93,62 %
25.03.2017 17:08 16,1 C 19,4 C 13,3 C 40 % 0 lf 1023,8 hPa 0,0 l/m 2 min 0 min 223 W/m 37,7 km/h (5 Bft) 100,00 %
25.03.2017 17:10 16,1 C 19,4 C 12,8 C 39 % 0 lf 1023,8 hPa 0,0 l/m 2 min 0 min 218 W/m 31,4 km/h (5 Bft) 97,87 %
25.03.2017 17:12 16,1 C 19,4 C 13,3 C 39 % 0 lf 1023,8 hPa 0,0 l/m 2 min 0 min 213 W/m 23,0 km/h (4 Bft) 100,00 %
25.03.2017 17:14 16,0 C 19,4 C 13,3 C 40 % 0 lf 1023,7 hPa 0,0 l/m 2 min 0 min 208 W/m 25,1 km/h (4 Bft) 97,83 %
25.03.2017 17:16 15,9 C 19,4 C 13,3 C 40 % 0 lf 1023,7 hPa 0,0 l/m 2 min 0 min 204 W/m 23,0 km/h (4 Bft) 97,87 %
25.03.2017 17:18 15,9 C 18,3 C 13,3 C 39 % 0 lf 1023,7 hPa 0,0 l/m 2 min 0 min 199 W/m 31,4 km/h (5 Bft) 91,49 %
25.03.2017 17:20 15,9 C 18,3 C 13,3 C 39 % 0 lf 1023,7 hPa 0,0 l/m 2 min 0 min 196 W/m 33,5 km/h (5 Bft) 89,36 %
25.03.2017 17:22 15,8 C 17,8 C 12,8 C 39 % 0 lf 1023,7 hPa 0,0 l/m 2 min 0 min 189 W/m 31,4 km/h (5 Bft) 89,36 %
25.03.2017 17:24 15,8 C 17,8 C 12,8 C 39 % 0 lf 1023,7 hPa 0,0 l/m 2 min 0 min 182 W/m 31,4 km/h (5 Bft) 100,00 %
25.03.2017 17:26 15,7 C 17,8 C 12,8 C 39 % 0 lf 1023,6 hPa 0,0 l/m 2 min 0 min 176 W/m 31,4 km/h (5 Bft) 89,13 %
25.03.2017 17:28 15,7 C 17,8 C 12,8 C 39 % 0 lf 1023,6 hPa 0,0 l/m 2 min 0 min 171 W/m 31,4 km/h (5 Bft) 89,36 %
25.03.2017 17:30 15,6 C 17,2 C 12,8 C 39 % 0 lf 1023,6 hPa 0,0 l/m 2 min 0 min 168 W/m 33,5 km/h (5 Bft) 82,98 %
25.03.2017 17:32 15,6 C 17,2 C 12,8 C 39 % 0 lf 1023,6 hPa 0,0 l/m 2 min 0 min 162 W/m 25,1 km/h (4 Bft) 100,00 %
25.03.2017 17:34 15,6 C 17,2 C 12,8 C 39 % 0 lf 1023,6 hPa 0,0 l/m 2 min 0 min 157 W/m 23,0 km/h (4 Bft) 82,98 %
25.03.2017 17:36 15,6 C 17,2 C 12,8 C 39 % 0 lf 1023,6 hPa 0,0 l/m 2 min 0 min 152 W/m 37,7 km/h (5 Bft) 91,30 %
25.03.2017 17:38 15,5 C 16,7 C 12,8 C 39 % 0 lf 1023,6 hPa 0,0 l/m 2 min 0 min 145 W/m 33,5 km/h (5 Bft) 82,98 %
25.03.2017 17:40 15,5 C 16,7 C 12,8 C 39 % 0 lf 1023,5 hPa 0,0 l/m 2 min 0 min 142 W/m 27,2 km/h (4 Bft) 80,85 %
25.03.2017 17:42 15,4 C 16,1 C 12,8 C 39 % 0 lf 1023,5 hPa 0,0 l/m 2 min 0 min 136 W/m 33,5 km/h (5 Bft) 80,85 %
25.03.2017 17:44 15,4 C 15,6 C 12,2 C 39 % 0 lf 1023,4 hPa 0,0 l/m 2 min 0 min 130 W/m 27,2 km/h (4 Bft) 76,60 %
25.03.2017 17:46 15,4 C 15,6 C 12,2 C 40 % 0 lf 1023,4 hPa 0,0 l/m 2 min 0 min 126 W/m 33,5 km/h (5 Bft) 74,47 %
25.03.2017 17:48 15,3 C 15,6 C 12,2 C 40 % 0 lf 1023,3 hPa 0,0 l/m 2 min 0 min 121 W/m 25,1 km/h (4 Bft) 78,26 %
25.03.2017 17:50 15,3 C 15,6 C 12,8 C 38 % 0 lf 1023,4 hPa 0,0 l/m 2 min 0 min 121 W/m 31,4 km/h (5 Bft) 78,72 %
25.03.2017 17:52 15,2 C 15,0 C 12,8 C 38 % 0 lf 1023,4 hPa 0,0 l/m 2 min 0 min 121 W/m 29,3 km/h (5 Bft) 80,85 %
25.03.2017 17:54 15,2 C 15,0 C 12,2 C 39 % 0 lf 1023,4 hPa 0,0 l/m 2 min 0 min 121 W/m 31,4 km/h (5 Bft) 74,47 %
25.03.2017 17:56 15,1 C 15,0 C 12,2 C 39 % 0 lf 1023,4 hPa 0,0 l/m 2 min 0 min 104 W/m 27,2 km/h (4 Bft) 74,47 %
25.03.2017 17:58 15,1 C 15,0 C 12,2 C 38 % 0 lf 1023,4 hPa 0,0 l/m 2 min 0 min 91 W/m 27,2 km/h (4 Bft) 82,98 %
25.03.2017 18:00 15,0 C 15,0 C 12,2 C 38 % 0 lf 1023,4 hPa 0,0 l/m 2 min 0 min 90 W/m 35,6 km/h (5 Bft) 82,61 %
25.03.2017 18:02 14,9 C 15,0 C 12,2 C 38 % 0 lf 1023,4 hPa 0,0 l/m 2 min 0 min 82 W/m 31,4 km/h (5 Bft) 82,98 %
25.03.2017 18:04 14,9 C 14,4 C 12,2 C 39 % 0 lf 1023,4 hPa 0,0 l/m 2 min 0 min 76 W/m 31,4 km/h (5 Bft) 76,60 %
25.03.2017 18:06 14,8 C 14,4 C 11,7 C 39 % 0 lf 1023,4 hPa 0,0 l/m 2 min 0 min 69 W/m 27,2 km/h (4 Bft) 82,98 %
25.03.2017 18:08 14,8 C 14,4 C 11,7 C 38 % 0 lf 1023,4 hPa 0,0 l/m 2 min 0 min 60 W/m 35,6 km/h (5 Bft) 85,71 %
25.03.2017 18:10 14,7 C 14,4 C 11,7 C 38 % 0 lf 1023,4 hPa 0,0 l/m 2 min 0 min 58 W/m 35,6 km/h (5 Bft) 74,47 %
25.03.2017 18:12 14,7 C 14,4 C 11,7 C 38 % 0 lf 1023,4 hPa 0,0 l/m 2 min 0 min 53 W/m 29,3 km/h (5 Bft) 78,72 %
25.03.2017 18:14 14,6 C 14,4 C 11,7 C 39 % 0 lf 1023,4 hPa 0,0 l/m 2 min 0 min 54 W/m 29,3 km/h (5 Bft) 80,43 %
25.03.2017 18:16 14,5 C 13,9 C 11,7 C 38 % 0 lf 1023,4 hPa 0,0 l/m 2 min 0 min 99 W/m 27,2 km/h (4 Bft) 78,72 %
25.03.2017 18:18 14,4 C 13,9 C 11,7 C 39 % 0 lf 1023,5 hPa 0,0 l/m 2 min 0 min 94 W/m 31,4 km/h (5 Bft) 76,60 %
25.03.2017 18:20 14,3 C 13,9 C 11,7 C 39 % 0 lf 1023,4 hPa 0,0 l/m 2 min 0 min 88 W/m 35,6 km/h (5 Bft) 78,72 %
25.03.2017 18:22 14,2 C 13,9 C 11,1 C 39 % 0 lf 1023,4 hPa 0,0 l/m 2 min 0 min 39 W/m 35,6 km/h (5 Bft) 78,72 %
25.03.2017 18:24 14,2 C 13,9 C 11,1 C 39 % 0 lf 1023,4 hPa 0,0 l/m 2 min 0 min 37 W/m 31,4 km/h (5 Bft) 86,96 %
25.03.2017 18:26 14,2 C 13,9 C 11,1 C 39 % 0 lf 1023,5 hPa 0,0 l/m 2 min 0 min 36 W/m 20,9 km/h (4 Bft) 87,23 %
25.03.2017 18:28 14,0 C 13,3 C 11,1 C 39 % 0 lf 1023,5 hPa 0,0 l/m 2 min 0 min 33 W/m 29,3 km/h (5 Bft) 85,11 %
25.03.2017 18:30 13,9 C 13,3 C 11,1 C 39 % 0 lf 1023,5 hPa 0,0 l/m 2 min 0 min 45 W/m 35,6 km/h (5 Bft) 78,72 %
25.03.2017 18:32 13,8 C 13,3 C 11,1 C 40 % 0 lf 1023,6 hPa 0,0 l/m 2 min 0 min 48 W/m 27,2 km/h (4 Bft) 93,62 %
25.03.2017 18:34 13,8 C 13,3 C 10,6 C 39 % 0 lf 1023,5 hPa 0,0 l/m 2 min 0 min 35 W/m 25,1 km/h (4 Bft) 91,49 %
25.03.2017 18:36 13,7 C 13,3 C 10,6 C 40 % 0 lf 1023,5 hPa 0,0 l/m 2 min 0 min 28 W/m 25,1 km/h (4 Bft) 82,61 %
25.03.2017 18:38 13,7 C 12,8 C 10,6 C 40 % 0 lf 1023,6 hPa 0,0 l/m 2 min 0 min 36 W/m 29,3 km/h (5 Bft) 87,23 %
25.03.2017 18:40 13,6 C 12,8 C 10,0 C 41 % 0 lf 1023,6 hPa 0,0 l/m 2 min 0 min 30 W/m 18,8 km/h (3 Bft) 85,11 %
25.03.2017 18:42 13,5 C 12,8 C 10,0 C 40 % 0 lf 1023,6 hPa 0,0 l/m 2 min 0 min 24 W/m 18,8 km/h (3 Bft) 93,62 %
25.03.2017 18:44 13,4 C 12,8 C 10,0 C 40 % 0 lf 1023,6 hPa 0,0 l/m 0 min 0 min 18 W/m 29,3 km/h (5 Bft) 97,87 %
25.03.2017 18:46 13,4 C 12,8 C 10,0 C 40 % 0 lf 1023,7 hPa 0,0 l/m 0 min 0 min 13 W/m 25,1 km/h (4 Bft) 93,62 %
25.03.2017 18:48 13,3 C 12,8 C 10,0 C 40 % 0 lf 1023,7 hPa 0,0 l/m 0 min 0 min 7 W/m 27,2 km/h (4 Bft) 47,83 %
25.03.2017 18:50 13,2 C 12,8 C 10,0 C 40 % 0 lf 1023,7 hPa 0,0 l/m 0 min 0 min 1 W/m 18,8 km/h (3 Bft) 40,43 %
25.03.2017 18:52 13,2 C 12,2 C 10,0 C 40 % 0 lf 1023,7 hPa 0,0 l/m 0 min 0 min 512 W/m 16,7 km/h (3 Bft) 53,19 %
25.03.2017 18:54 13,1 C 12,2 C 9,4 C 41 % 0 lf 1023,7 hPa 0,0 l/m 0 min 0 min 498 W/m 16,7 km/h (3 Bft) 48,94 %
25.03.2017 18:56 13,0 C 12,2 C 9,4 C 41 % 0 lf 1023,7 hPa 0,0 l/m 0 min 0 min 437 W/m 18,8 km/h (3 Bft) 46,81 %
25.03.2017 18:58 12,9 C 12,2 C 9,4 C 41 % 0 lf 1023,7 hPa 0,0 l/m 0 min 0 min 426 W/m 14,6 km/h (3 Bft) 55,32 %
25.03.2017 19:00 12,9 C 12,2 C 9,4 C 41 % 0 lf 1023,7 hPa 0,0 l/m 0 min 0 min 355 W/m 14,6 km/h (3 Bft) 65,22 %
25.03.2017 19:02 12,8 C 12,2 C 9,4 C 42 % 0 lf 1023,7 hPa 0,0 l/m 0 min 0 min 72 W/m 23,0 km/h (4 Bft) 59,57 %
25.03.2017 19:04 12,7 C 11,7 C 9,4 C 41 % 0 lf 1023,8 hPa 0,0 l/m 0 min 0 min 11 W/m 29,3 km/h (5 Bft) 53,19 %
25.03.2017 19:06 12,7 C 11,7 C 9,4 C 42 % 0 lf 1023,8 hPa 0,0 l/m 0 min 0 min 11 W/m 20,9 km/h (4 Bft) 68,09 %
25.03.2017 19:08 12,6 C 11,7 C 9,4 C 42 % 0 lf 1023,8 hPa 0,0 l/m 0 min 0 min 9 W/m 18,8 km/h (3 Bft) 61,70 %
25.03.2017 19:10 12,5 C 11,7 C 8,9 C 42 % 0 lf 1023,8 hPa 0,0 l/m 0 min 0 min 0 W/m 27,2 km/h (4 Bft) 72,34 %
25.03.2017 19:12 12,4 C 11,7 C 9,4 C 43 % 0 lf 1023,7 hPa 0,0 l/m 0 min 0 min 0 W/m 20,9 km/h (4 Bft) 65,22 %
25.03.2017 19:14 12,4 C 11,7 C 9,4 C 43 % 0 lf 1023,8 hPa 0,0 l/m 0 min 0 min 0 W/m 25,1 km/h (4 Bft) 82,98 %
25.03.2017 19:16 12,3 C 11,7 C 8,9 C 43 % 0 lf 1023,8 hPa 0,0 l/m 0 min 0 min 0 W/m 16,7 km/h (3 Bft) 76,60 %
25.03.2017 19:18 12,3 C 11,7 C 8,9 C 43 % 0 lf 1023,8 hPa 0,0 l/m 0 min 0 min 0 W/m 14,6 km/h (3 Bft) 87,23 %
25.03.2017 19:20 12,2 C 11,7 C 8,9 C 43 % 0 lf 1023,8 hPa 0,0 l/m 0 min 0 min 0 W/m 20,9 km/h (4 Bft) 89,36 %
25.03.2017 19:22 12,2 C 11,7 C 8,9 C 43 % 0 lf 1023,8 hPa 0,0 l/m 0 min 0 min 0 W/m 20,9 km/h (4 Bft) 95,74 %
25.03.2017 19:24 12,2 C 11,7 C 8,9 C 43 % 0 lf 1023,8 hPa 0,0 l/m 0 min 0 min 0 W/m 16,7 km/h (3 Bft) 95,65 %
25.03.2017 19:26 12,1 C 11,7 C 8,9 C 43 % 0 lf 1023,8 hPa 0,0 l/m 0 min 0 min 0 W/m 20,9 km/h (4 Bft) 89,36 %
25.03.2017 19:28 12,1 C 11,1 C 8,9 C 44 % 0 lf 1023,8 hPa 0,0 l/m 0 min 0 min 0 W/m 20,9 km/h (4 Bft) 97,87 %
25.03.2017 19:30 12,0 C 11,1 C 8,9 C 44 % 0 lf 1023,8 hPa 0,0 l/m 0 min 0 min 0 W/m 16,7 km/h (3 Bft) 97,87 %
25.03.2017 19:32 12,0 C 11,1 C 8,9 C 44 % 0 lf 1023,9 hPa 0,0 l/m 0 min 0 min 0 W/m 23,0 km/h (4 Bft) 95,74 %
25.03.2017 19:34 11,9 C 11,1 C 8,9 C 44 % 0 lf 1023,9 hPa 0,0 l/m 0 min 0 min 0 W/m 18,8 km/h (3 Bft) 97,87 %
25.03.2017 19:36 11,9 C 11,1 C 8,3 C 44 % 0 lf 1023,9 hPa 0,0 l/m 0 min 0 min 0 W/m 25,1 km/h (4 Bft) 91,30 %
25.03.2017 19:38 11,8 C 11,1 C 8,3 C 44 % 0 lf 1023,9 hPa 0,0 l/m 0 min 0 min 0 W/m 18,8 km/h (3 Bft) 97,87 %
25.03.2017 19:40 11,8 C 11,1 C 8,3 C 44 % 0 lf 1023,9 hPa 0,0 l/m 0 min 0 min 0 W/m 16,7 km/h (3 Bft) 100,00 %
25.03.2017 19:42 11,7 C 11,1 C 8,3 C 45 % 0 lf 1023,9 hPa 0,0 l/m 0 min 0 min 0 W/m 25,1 km/h (4 Bft) 100,00 %
25.03.2017 19:44 11,7 C 11,1 C 8,3 C 44 % 0 lf 1023,9 hPa 0,0 l/m 0 min 0 min 0 W/m 20,9 km/h (4 Bft) 95,74 %
25.03.2017 19:46 11,7 C 11,1 C 8,3 C 45 % 0 lf 1024,0 hPa 0,0 l/m 0 min 0 min 0 W/m 20,9 km/h (4 Bft) 97,83 %
25.03.2017 19:48 11,6 C 11,1 C 8,9 C 45 % 0 lf 1024,0 hPa 0,0 l/m 0 min 0 min 0 W/m 27,2 km/h (4 Bft) 97,87 %
25.03.2017 19:50 11,6 C 11,1 C 8,9 C 45 % 0 lf 1023,9 hPa 0,0 l/m 0 min 0 min 0 W/m 31,4 km/h (5 Bft) 100,00 %
25.03.2017 19:52 11,6 C 11,1 C 8,9 C 45 % 0 lf 1023,9 hPa 0,0 l/m 0 min 0 min 0 W/m 35,6 km/h (5 Bft) 97,87 %
25.03.2017 19:54 11,5 C 11,1 C 8,9 C 45 % 0 lf 1023,9 hPa 0,0 l/m 0 min 0 min 0 W/m 23,0 km/h (4 Bft) 100,00 %
25.03.2017 19:56 11,5 C 11,1 C 8,3 C 45 % 0 lf 1023,9 hPa 0,0 l/m 0 min 0 min 0 W/m 20,9 km/h (4 Bft) 97,87 %
25.03.2017 19:58 11,4 C 11,1 C 8,3 C 45 % 0 lf 1023,9 hPa 0,0 l/m 0 min 0 min 0 W/m 18,8 km/h (3 Bft) 100,00 %
25.03.2017 20:00 11,4 C 11,1 C 8,3 C 45 % 0 lf 1023,9 hPa 0,0 l/m 0 min 0 min 0 W/m 23,0 km/h (4 Bft) 97,83 %
25.03.2017 20:02 11,4 C 11,1 C 8,3 C 46 % 0 lf 1023,9 hPa 0,0 l/m 0 min 0 min 0 W/m 20,9 km/h (4 Bft) 95,74 %
25.03.2017 20:04 11,4 C 11,1 C 8,3 C 46 % 0 lf 1023,9 hPa 0,0 l/m 0 min 0 min 0 W/m 23,0 km/h (4 Bft) 100,00 %
25.03.2017 20:06 11,3 C 11,1 C 8,3 C 46 % 0 lf 1023,9 hPa 0,0 l/m 0 min 0 min 0 W/m 20,9 km/h (4 Bft) 100,00 %
25.03.2017 20:08 11,3 C 10,6 C 7,8 C 47 % 0 lf 1023,9 hPa 0,0 l/m 0 min 0 min 0 W/m 20,9 km/h (4 Bft) 100,00 %
25.03.2017 20:10 11,2 C 10,6 C 7,8 C 47 % 0 lf 1023,9 hPa 0,0 l/m 0 min 0 min 0 W/m 27,2 km/h (4 Bft) 100,00 %
25.03.2017 20:12 11,2 C 10,6 C 8,3 C 46 % 0 lf 1023,9 hPa 0,0 l/m 0 min 0 min 0 W/m 25,1 km/h (4 Bft) 100,00 %
25.03.2017 20:14 11,2 C 11,1 C 8,3 C 46 % 0 lf 1023,9 hPa 0,0 l/m 0 min 0 min 0 W/m 33,5 km/h (5 Bft) 97,87 %
25.03.2017 20:16 11,2 C 11,1 C 8,3 C 46 % 0 lf 1023,9 hPa 0,0 l/m 0 min 0 min 0 W/m 23,0 km/h (4 Bft) 100,00 %
25.03.2017 20:18 11,2 C 11,1 C 8,3 C 47 % 0 lf 1023,9 hPa 0,0 l/m 0 min 0 min 0 W/m 31,4 km/h (5 Bft) 93,62 %
25.03.2017 20:20 11,1 C 11,1 C 8,3 C 46 % 0 lf 1024,0 hPa 0,0 l/m 0 min 0 min 0 W/m 29,3 km/h (5 Bft) 97,87 %
25.03.2017 20:22 11,1 C 10,6 C 8,3 C 47 % 0 lf 1024,0 hPa 0,0 l/m 0 min 0 min 0 W/m 20,9 km/h (4 Bft) 100,00 %
25.03.2017 20:24 11,1 C 10,6 C 8,3 C 47 % 0 lf 1024,0 hPa 0,0 l/m 0 min 0 min 0 W/m 16,7 km/h (3 Bft) 100,00 %
25.03.2017 20:26 11,1 C 10,6 C 7,8 C 47 % 0 lf 1024,0 hPa 0,0 l/m 0 min 0 min 0 W/m 16,7 km/h (3 Bft) 97,87 %
25.03.2017 20:28 11,0 C 10,6 C 7,8 C 48 % 0 lf 1024,0 hPa 0,0 l/m 0 min 0 min 0 W/m 27,2 km/h (4 Bft) 97,87 %
25.03.2017 20:30 11,0 C 10,6 C 7,8 C 48 % 0 lf 1024,0 hPa 0,0 l/m 0 min 0 min 0 W/m 18,8 km/h (3 Bft) 97,87 %
25.03.2017 20:32 10,9 C 10,6 C 7,8 C 48 % 0 lf 1024,0 hPa 0,0 l/m 0 min 0 min 0 W/m 31,4 km/h (5 Bft) 97,87 %
25.03.2017 20:34 10,9 C 10,6 C 7,8 C 48 % 0 lf 1024,0 hPa 0,0 l/m 0 min 0 min 0 W/m 27,2 km/h (4 Bft) 95,65 %
25.03.2017 20:36 10,9 C 10,6 C 7,8 C 48 % 0 lf 1024,0 hPa 0,0 l/m 0 min 0 min 0 W/m 16,7 km/h (3 Bft) 95,74 %
25.03.2017 20:38 10,9 C 10,6 C 7,8 C 48 % 0 lf 1024,0 hPa 0,0 l/m 0 min 0 min 0 W/m 14,6 km/h (3 Bft) 100,00 %
25.03.2017 20:40 10,8 C 10,6 C 7,8 C 48 % 0 lf 1024,1 hPa 0,0 l/m 0 min 0 min 0 W/m 20,9 km/h (4 Bft) 100,00 %
25.03.2017 20:42 10,8 C 10,6 C 7,8 C 48 % 0 lf 1024,1 hPa 0,0 l/m 0 min 0 min 0 W/m 20,9 km/h (4 Bft) 95,74 %
25.03.2017 20:44 10,8 C 10,6 C 7,8 C 48 % 0 lf 1024,0 hPa 0,0 l/m 0 min 0 min 0 W/m 25,1 km/h (4 Bft) 95,74 %
25.03.2017 20:46 10,8 C 10,6 C 7,8 C 48 % 0 lf 1024,0 hPa 0,0 l/m 0 min 0 min 0 W/m 23,0 km/h (4 Bft) 95,65 %
25.03.2017 20:48 10,7 C 10,6 C 7,8 C 48 % 0 lf 1024,0 hPa 0,0 l/m 0 min 0 min 0 W/m 25,1 km/h (4 Bft) 97,87 %
25.03.2017 20:50 10,7 C 10,6 C 7,8 C 48 % 0 lf 1024,1 hPa 0,0 l/m 0 min 0 min 0 W/m 29,3 km/h (5 Bft) 97,87 %
25.03.2017 20:52 10,7 C 10,6 C 7,8 C 49 % 0 lf 1024,1 hPa 0,0 l/m 0 min 0 min 0 W/m 20,9 km/h (4 Bft) 100,00 %
25.03.2017 20:54 10,7 C 10,6 C 8,3 C 49 % 0 lf 1024,1 hPa 0,0 l/m 0 min 0 min 2 W/m 27,2 km/h (4 Bft) 95,74 %
25.03.2017 20:56 10,7 C 10,6 C 7,8 C 49 % 0 lf 1024,1 hPa 0,0 l/m 0 min 0 min 5 W/m 29,3 km/h (5 Bft) 95,74 %
25.03.2017 20:58 10,7 C 10,6 C 7,8 C 49 % 0 lf 1024,1 hPa 0,0 l/m 0 min 0 min 5 W/m 23,0 km/h (4 Bft) 86,96 %
25.03.2017 21:00 10,6 C 10,6 C 7,8 C 49 % 0 lf 1024,0 hPa 0,0 l/m 0 min 0 min 5 W/m 29,3 km/h (5 Bft) 93,62 %
25.03.2017 21:02 10,6 C 10,6 C 7,8 C 49 % 0 lf 1024,1 hPa 0,0 l/m 0 min 0 min 5 W/m 14,6 km/h (3 Bft) 93,62 %
25.03.2017 21:04 10,6 C 10,0 C 7,8 C 50 % 0 lf 1024,1 hPa 0,0 l/m 0 min 0 min 5 W/m 29,3 km/h (5 Bft) 95,74 %
25.03.2017 21:06 10,6 C 10,0 C 7,8 C 50 % 0 lf 1024,1 hPa 0,0 l/m 0 min 0 min 5 W/m 25,1 km/h (4 Bft) 95,74 %
25.03.2017 21:08 10,6 C 10,0 C 7,8 C 50 % 0 lf 1024,1 hPa 0,0 l/m 0 min 0 min 0 W/m 23,0 km/h (4 Bft) 95,74 %
25.03.2017 21:10 10,6 C 10,0 C 7,8 C 50 % 0 lf 1024,1 hPa 0,0 l/m 0 min 0 min 0 W/m 29,3 km/h (5 Bft) 93,48 %
25.03.2017 21:12 10,6 C 10,6 C 7,8 C 50 % 0 lf 1024,0 hPa 0,0 l/m 0 min 0 min 0 W/m 29,3 km/h (5 Bft) 95,74 %
25.03.2017 21:14 10,5 C 10,6 C 7,8 C 50 % 0 lf 1024,0 hPa 0,0 l/m 0 min 0 min 0 W/m 27,2 km/h (4 Bft) 93,62 %
25.03.2017 21:16 10,5 C 10,6 C 7,8 C 50 % 0 lf 1024,0 hPa 0,0 l/m 0 min 0 min 0 W/m 23,0 km/h (4 Bft) 95,74 %
25.03.2017 21:18 10,5 C 10,6 C 7,8 C 50 % 0 lf 1024,0 hPa 0,0 l/m 0 min 0 min 0 W/m 18,8 km/h (3 Bft) 95,74 %
25.03.2017 21:20 10,5 C 10,6 C 7,8 C 50 % 0 lf 1024,0 hPa 0,0 l/m 0 min 0 min 0 W/m 20,9 km/h (4 Bft) 93,62 %
25.03.2017 21:22 10,4 C 10,0 C 7,8 C 50 % 0 lf 1024,0 hPa 0,0 l/m 0 min 0 min 0 W/m 27,2 km/h (4 Bft) 95,65 %
25.03.2017 21:24 10,4 C 10,0 C 7,8 C 51 % 0 lf 1024,0 hPa 0,0 l/m 0 min 0 min 0 W/m 25,1 km/h (4 Bft) 93,62 %
25.03.2017 21:26 10,4 C 10,0 C 7,8 C 51 % 0 lf 1024,0 hPa 0,0 l/m 0 min 0 min 0 W/m 23,0 km/h (4 Bft) 95,74 %
25.03.2017 21:28 10,4 C 10,0 C 7,8 C 51 % 0 lf 1024,0 hPa 0,0 l/m 0 min 0 min 0 W/m 18,8 km/h (3 Bft) 97,87 %
25.03.2017 21:30 10,4 C 10,0 C 7,8 C 51 % 0 lf 1024,0 hPa 0,0 l/m 0 min 0 min 0 W/m 25,1 km/h (4 Bft) 97,87 %
25.03.2017 21:32 10,4 C 10,0 C 7,2 C 51 % 0 lf 1023,9 hPa 0,0 l/m 0 min 0 min 0 W/m 20,9 km/h (4 Bft) 95,65 %
25.03.2017 21:34 10,3 C 10,0 C 7,2 C 51 % 0 lf 1024,0 hPa 0,0 l/m 0 min 0 min 0 W/m 29,3 km/h (5 Bft) 95,74 %
25.03.2017 21:36 10,3 C 10,0 C 7,8 C 51 % 0 lf 1024,0 hPa 0,0 l/m 0 min 0 min 0 W/m 23,0 km/h (4 Bft) 95,74 %
25.03.2017 21:38 10,3 C 10,0 C 7,2 C 52 % 0 lf 1024,0 hPa 0,0 l/m 0 min 0 min 0 W/m 20,9 km/h (4 Bft) 93,62 %
25.03.2017 21:40 10,3 C 10,0 C 7,2 C 52 % 0 lf 1024,0 hPa 0,0 l/m 0 min 0 min 0 W/m 18,8 km/h (3 Bft) 95,74 %
25.03.2017 21:42 10,2 C 10,0 C 7,2 C 52 % 0 lf 1024,0 hPa 0,0 l/m 0 min 0 min 0 W/m 20,9 km/h (4 Bft) 91,49 %
25.03.2017 21:44 10,2 C 10,0 C 7,2 C 52 % 0 lf 1024,0 hPa 0,0 l/m 0 min 0 min 0 W/m 27,2 km/h (4 Bft) 91,30 %
25.03.2017 21:46 10,2 C 9,4 C 7,2 C 52 % 0 lf 1024,0 hPa 0,0 l/m 0 min 0 min 0 W/m 18,8 km/h (3 Bft) 95,74 %
25.03.2017 21:48 10,2 C 9,4 C 7,2 C 52 % 0 lf 1024,0 hPa 0,0 l/m 0 min 0 min 5 W/m 23,0 km/h (4 Bft) 91,49 %
25.03.2017 21:50 10,1 C 9,4 C 7,2 C 53 % 0 lf 1024,0 hPa 0,0 l/m 0 min 0 min 5 W/m 27,2 km/h (4 Bft) 93,62 %
25.03.2017 21:52 10,1 C 10,0 C 7,2 C 52 % 0 lf 1024,0 hPa 0,0 l/m 0 min 0 min 5 W/m 25,1 km/h (4 Bft) 95,74 %
25.03.2017 21:54 10,1 C 10,0 C 7,2 C 53 % 0 lf 1024,0 hPa 0,0 l/m 0 min 0 min 5 W/m 25,1 km/h (4 Bft) 93,62 %
25.03.2017 21:56 10,1 C 10,0 C 7,2 C 53 % 0 lf 1024,0 hPa 0,0 l/m 0 min 0 min 5 W/m 20,9 km/h (4 Bft) 91,30 %
25.03.2017 21:58 10,1 C 10,0 C 7,2 C 53 % 0 lf 1024,0 hPa 0,0 l/m 0 min 0 min 5 W/m 14,6 km/h (3 Bft) 95,74 %
25.03.2017 22:00 10,0 C 10,0 C 7,2 C 53 % 0 lf 1024,0 hPa 0,0 l/m 0 min 0 min 3 W/m 14,6 km/h (3 Bft) 93,62 %
25.03.2017 22:02 10,0 C 9,4 C 7,2 C 53 % 0 lf 1024,1 hPa 0,0 l/m 0 min 0 min 2 W/m 27,2 km/h (4 Bft) 93,62 %
25.03.2017 22:04 9,9 C 9,4 C 7,2 C 53 % 0 lf 1024,0 hPa 0,0 l/m 0 min 0 min 0 W/m 14,6 km/h (3 Bft) 95,74 %
25.03.2017 22:06 9,9 C 10,0 C 7,2 C 53 % 0 lf 1024,0 hPa 0,0 l/m 0 min 0 min 1 W/m 25,1 km/h (4 Bft) 93,62 %
25.03.2017 22:08 9,9 C 10,0 C 7,2 C 53 % 0 lf 1024,0 hPa 0,0 l/m 0 min 0 min 4 W/m 18,8 km/h (3 Bft) 91,30 %
25.03.2017 22:10 9,9 C 10,0 C 7,2 C 53 % 0 lf 1024,0 hPa 0,0 l/m 0 min 0 min 0 W/m 16,7 km/h (3 Bft) 93,62 %
25.03.2017 22:12 9,9 C 9,4 C 6,7 C 53 % 0 lf 1024,0 hPa 0,0 l/m 0 min 0 min 1 W/m 18,8 km/h (3 Bft) 95,74 %
25.03.2017 22:14 9,9 C 9,4 C 7,2 C 54 % 0 lf 1023,9 hPa 0,0 l/m 0 min 0 min 5 W/m 27,2 km/h (4 Bft) 93,62 %
25.03.2017 22:16 9,8 C 9,4 C 6,7 C 54 % 0 lf 1023,9 hPa 0,0 l/m 0 min 0 min 5 W/m 18,8 km/h (3 Bft) 93,62 %
25.03.2017 22:18 9,8 C 9,4 C 6,7 C 54 % 0 lf 1023,9 hPa 0,0 l/m 0 min 0 min 5 W/m 16,7 km/h (3 Bft) 93,62 %
25.03.2017 22:20 9,8 C 9,4 C 6,7 C 54 % 0 lf 1024,0 hPa 0,0 l/m 0 min 0 min 5 W/m 20,9 km/h (4 Bft) 91,30 %
25.03.2017 22:22 9,8 C 9,4 C 7,2 C 54 % 0 lf 1024,0 hPa 0,0 l/m 0 min 0 min 1 W/m 18,8 km/h (3 Bft) 97,87 %
25.03.2017 22:24 9,8 C 9,4 C 6,7 C 54 % 0 lf 1023,9 hPa 0,0 l/m 0 min 0 min 0 W/m 16,7 km/h (3 Bft) 97,87 %
25.03.2017 22:26 9,7 C 9,4 C 6,7 C 54 % 0 lf 1023,9 hPa 0,0 l/m 0 min 0 min 0 W/m 20,9 km/h (4 Bft) 95,74 %
25.03.2017 22:28 9,7 C 9,4 C 7,2 C 54 % 0 lf 1023,9 hPa 0,0 l/m 0 min 0 min 0 W/m 20,9 km/h (4 Bft) 95,74 %
25.03.2017 22:30 9,7 C 9,4 C 7,2 C 54 % 0 lf 1023,9 hPa 0,0 l/m 0 min 0 min 0 W/m 29,3 km/h (5 Bft) 97,87 %
25.03.2017 22:32 9,7 C 9,4 C 6,7 C 55 % 0 lf 1023,9 hPa 0,0 l/m 0 min 0 min 0 W/m 23,0 km/h (4 Bft) 97,83 %
25.03.2017 22:34 9,6 C 9,4 C 7,2 C 55 % 0 lf 1023,9 hPa 0,0 l/m 0 min 0 min 0 W/m 23,0 km/h (4 Bft) 97,87 %
25.03.2017 22:36 9,6 C 9,4 C 7,2 C 55 % 0 lf 1023,9 hPa 0,0 l/m 0 min 0 min 0 W/m 16,7 km/h (3 Bft) 95,74 %
25.03.2017 22:38 9,6 C 9,4 C 6,7 C 55 % 0 lf 1023,9 hPa 0,0 l/m 0 min 0 min 0 W/m 18,8 km/h (3 Bft) 97,87 %
25.03.2017 22:40 9,6 C 9,4 C 6,7 C 55 % 0 lf 1023,9 hPa 0,0 l/m 0 min 0 min 0 W/m 27,2 km/h (4 Bft) 95,74 %
25.03.2017 22:42 9,6 C 9,4 C 7,2 C 55 % 0 lf 1023,9 hPa 0,0 l/m 0 min 0 min 0 W/m 33,5 km/h (5 Bft) 93,48 %
25.03.2017 22:44 9,6 C 9,4 C 7,2 C 56 % 0 lf 1023,8 hPa 0,0 l/m 0 min 0 min 0 W/m 16,7 km/h (3 Bft) 97,87 %
25.03.2017 22:46 9,5 C 9,4 C 6,7 C 56 % 0 lf 1023,9 hPa 0,0 l/m 0 min 0 min 0 W/m 18,8 km/h (3 Bft) 97,87 %
25.03.2017 22:48 9,5 C 8,9 C 6,7 C 56 % 0 lf 1023,9 hPa 0,0 l/m 0 min 0 min 0 W/m 20,9 km/h (4 Bft) 97,87 %
25.03.2017 22:50 9,5 C 8,9 C 6,7 C 56 % 0 lf 1023,9 hPa 0,0 l/m 0 min 0 min 0 W/m 14,6 km/h (3 Bft) 95,74 %
25.03.2017 22:52 9,5 C 8,9 C 6,7 C 56 % 0 lf 1023,8 hPa 0,0 l/m 0 min 0 min 0 W/m 20,9 km/h (4 Bft) 95,74 %
25.03.2017 22:54 9,4 C 8,9 C 6,7 C 56 % 0 lf 1023,8 hPa 0,0 l/m 0 min 0 min 0 W/m 16,7 km/h (3 Bft) 89,13 %
25.03.2017 22:56 9,4 C 8,9 C 6,7 C 57 % 0 lf 1023,8 hPa 0,0 l/m 0 min 0 min 0 W/m 20,9 km/h (4 Bft) 97,87 %
25.03.2017 22:58 9,4 C 8,9 C 6,7 C 57 % 0 lf 1023,8 hPa 0,0 l/m 0 min 0 min 0 W/m 18,8 km/h (3 Bft) 97,87 %
25.03.2017 23:00 9,4 C 8,9 C 6,7 C 57 % 0 lf 1023,8 hPa 0,0 l/m 0 min 0 min 0 W/m 25,1 km/h (4 Bft) 95,74 %
25.03.2017 23:02 9,3 C 8,9 C 6,7 C 57 % 0 lf 1023,8 hPa 0,0 l/m 0 min 0 min 0 W/m 18,8 km/h (3 Bft) 93,62 %
25.03.2017 23:04 9,3 C 8,9 C 6,7 C 57 % 0 lf 1023,7 hPa 0,0 l/m 0 min 0 min 0 W/m 23,0 km/h (4 Bft) 95,74 %
25.03.2017 23:06 9,3 C 8,9 C 6,7 C 57 % 0 lf 1023,8 hPa 0,0 l/m 0 min 0 min 0 W/m 20,9 km/h (4 Bft) 95,65 %
25.03.2017 23:08 9,2 C 8,9 C 6,7 C 58 % 0 lf 1023,8 hPa 0,0 l/m 0 min 0 min 0 W/m 27,2 km/h (4 Bft) 95,74 %
25.03.2017 23:10 9,2 C 8,9 C 6,7 C 58 % 0 lf 1023,8 hPa 0,0 l/m 0 min 0 min 0 W/m 25,1 km/h (4 Bft) 89,36 %
25.03.2017 23:12 9,2 C 8,9 C 6,7 C 58 % 0 lf 1023,8 hPa 0,0 l/m 0 min 0 min 0 W/m 20,9 km/h (4 Bft) 93,62 %
25.03.2017 23:14 9,2 C 8,9 C 6,7 C 58 % 0 lf 1023,8 hPa 0,0 l/m 0 min 0 min 0 W/m 25,1 km/h (4 Bft) 97,87 %
25.03.2017 23:16 9,2 C 8,9 C 6,7 C 58 % 0 lf 1023,7 hPa 0,0 l/m 0 min 0 min 0 W/m 23,0 km/h (4 Bft) 95,74 %
25.03.2017 23:18 9,1 C 8,9 C 6,7 C 58 % 0 lf 1023,7 hPa 0,0 l/m 0 min 0 min 0 W/m 27,2 km/h (4 Bft) 93,48 %
25.03.2017 23:20 9,1 C 8,9 C 6,7 C 59 % 0 lf 1023,6 hPa 0,0 l/m 0 min 0 min 0 W/m 23,0 km/h (4 Bft) 97,87 %
25.03.2017 23:22 9,1 C 8,9 C 6,7 C 59 % 0 lf 1023,6 hPa 0,0 l/m 0 min 0 min 0 W/m 14,6 km/h (3 Bft) 100,00 %
25.03.2017 23:24 9,1 C 8,9 C 6,7 C 59 % 0 lf 1023,6 hPa 0,0 l/m 0 min 0 min 0 W/m 25,1 km/h (4 Bft) 100,00 %
25.03.2017 23:26 9,1 C 8,9 C 6,1 C 59 % 0 lf 1023,7 hPa 0,0 l/m 0 min 0 min 0 W/m 16,7 km/h (3 Bft) 100,00 %
25.03.2017 23:28 9,1 C 8,3 C 6,1 C 59 % 0 lf 1023,6 hPa 0,0 l/m 0 min 0 min 0 W/m 16,7 km/h (3 Bft) 100,00 %
25.03.2017 23:30 9,0 C 8,3 C 6,1 C 60 % 0 lf 1023,6 hPa 0,0 l/m 0 min 0 min 0 W/m 20,9 km/h (4 Bft) 97,83 %
25.03.2017 23:32 9,0 C 8,3 C 6,1 C 60 % 0 lf 1023,6 hPa 0,0 l/m 0 min 0 min 0 W/m 20,9 km/h (4 Bft) 95,74 %
25.03.2017 23:34 9,0 C 8,3 C 6,1 C 60 % 0 lf 1023,6 hPa 0,0 l/m 0 min 0 min 1 W/m 18,8 km/h (3 Bft) 95,74 %
25.03.2017 23:36 8,9 C 8,3 C 6,1 C 60 % 0 lf 1023,6 hPa 0,0 l/m 0 min 0 min 0 W/m 25,1 km/h (4 Bft) 95,74 %
25.03.2017 23:38 8,9 C 8,3 C 6,1 C 60 % 0 lf 1023,6 hPa 0,0 l/m 0 min 0 min 4 W/m 20,9 km/h (4 Bft) 100,00 %
25.03.2017 23:40 8,9 C 8,3 C 6,1 C 60 % 0 lf 1023,6 hPa 0,0 l/m 0 min 0 min 0 W/m 20,9 km/h (4 Bft) 100,00 %
25.03.2017 23:42 8,9 C 8,3 C 6,1 C 61 % 0 lf 1023,7 hPa 0,0 l/m 0 min 0 min 0 W/m 23,0 km/h (4 Bft) 97,87 %
25.03.2017 23:44 8,8 C 8,3 C 6,1 C 61 % 0 lf 1023,7 hPa 0,0 l/m 0 min 0 min 0 W/m 23,0 km/h (4 Bft) 91,49 %
25.03.2017 23:46 8,8 C 8,3 C 6,7 C 61 % 0 lf 1023,7 hPa 0,0 l/m 0 min 0 min 0 W/m 29,3 km/h (5 Bft) 95,74 %
25.03.2017 23:48 8,8 C 8,3 C 6,7 C 61 % 0 lf 1023,6 hPa 0,0 l/m 0 min 0 min 0 W/m 23,0 km/h (4 Bft) 97,87 %
25.03.2017 23:50 8,8 C 8,3 C 6,7 C 61 % 0 lf 1023,5 hPa 0,0 l/m 0 min 0 min 0 W/m 29,3 km/h (5 Bft) 97,87 %
25.03.2017 23:52 8,7 C 8,3 C 6,1 C 62 % 0 lf 1023,6 hPa 0,0 l/m 0 min 0 min 0 W/m 29,3 km/h (5 Bft) 97,83 %
25.03.2017 23:54 8,7 C 8,3 C 6,7 C 62 % 0 lf 1023,6 hPa 0,0 l/m 0 min 0 min 0 W/m 33,5 km/h (5 Bft) 97,87 %
25.03.2017 23:56 8,7 C 8,3 C 6,1 C 62 % 0 lf 1023,5 hPa 0,0 l/m 0 min 0 min 0 W/m 25,1 km/h (4 Bft) 95,74 %
25.03.2017 23:58 8,7 C 8,3 C 6,1 C 62 % 0 lf 1023,5 hPa 0,0 l/m 0 min 0 min 0 W/m 27,2 km/h (4 Bft) 93,62 %
_ Min-Zeit 06:14 04:52 05:02 15:54 00:00 17:48 - - - - 02:44 18:50
Minimum _ 4,2 C 3,9 C 1,1 C 38 % 0 lf 1023,3 hPa - - - - 4,2 km/h (1 Bft) 40,43 %
_ Max-Zeit 14:30 13:42 14:20 07:46 00:00 00:04 00:00 06:42 00:00 13:58 13:16 00:02
Maximum _ 17,3 C 26,1 C 19,4 C 88 % 0 lf 1030,1 hPa 0,0 l/m 2 min 0 min 861 W/m 50,2 km/h
O-NO (7 Bft)
100,00 %
Durchschnitt _ 10,5 C 13,0 C 8,8 C 61 % 0 lf 1027,0 hPa #0,0 l/m #11:56 h #0 min. 359 W/m 22,7 km/h (4 Bft) 94,36 %
© 2017 W. Hausmann